ECMWFFLT1_sfc_temp_057.txt.gz
Temp
38 39 39 40 40 41 44 46 47 46 46 46 45 44 44 43 42 41 41 42 41 40 40 38 36 36 36 35 35 35 34 33 33 33 33 32 31 31 31 30 30 30 30 30 30 30 29 29 29 29 29 29 29 28 27 26 27 27 26 25 26 25
38 38 38 38 39 39 41 44 45 45 45 45 45 44 44 42 41 40 39 39 40 39 38 36 36 35 35 34 34 34 34 33 33 33 32 32 31 31 31 31 30 30 30 30 30 29 29 29 28 28 28 28 29 28 27 26 27 26 26 25 25 26
37 37 38 38 38 38 39 42 44 45 45 44 45 43 42 41 40 39 39 38 38 37 36 35 35 34 34 33 34 35 34 34 34 33 33 31 31 31 31 31 31 30 30 30 30 30 29 28 28 28 28 28 27 27 27 26 26 26 24 25 24 24
36 36 35 35 36 36 37 37 40 43 44 44 44 43 42 41 40 40 39 38 38 37 36 35 35 34 34 34 34 34 34 33 33 32 31 31 31 31 31 31 30 30 30 30 29 29 29 29 28 27 28 28 28 26 27 26 25 25 23 24 23 23
36 36 36 36 36 37 37 36 39 41 42 43 43 42 42 42 41 41 40 40 39 37 36 35 35 34 34 34 34 33 32 32 31 31 31 31 30 30 31 31 30 30 30 29 29 29 28 28 28 28 28 28 28 27 26 25 25 24 23 23 23 23
35 34 34 35 35 35 36 37 37 38 41 42 42 42 42 41 41 40 40 39 39 37 35 35 35 34 34 34 34 33 32 32 31 31 31 31 30 30 29 29 30 30 30 30 29 29 29 29 28 28 29 29 29 28 27 25 24 24 23 23 22 22
34 35 35 35 35 36 36 36 37 37 38 40 41 42 42 41 41 40 40 39 38 37 36 35 35 34 34 34 33 33 32 31 31 31 31 30 30 30 30 30 31 31 31 31 30 30 30 30 29 29 30 29 29 28 27 25 24 23 23 23 23 24
35 35 35 35 36 36 36 36 37 37 37 39 41 41 41 41 40 40 39 39 38 36 35 35 35 35 34 34 33 33 32 31 31 31 31 32 32 31 31 31 31 32 32 32 31 31 31 31 31 31 30 29 28 28 27 25 24 23 22 22 22 22
34 35 35 36 36 36 36 36 36 37 37 37 38 40 40 40 39 39 39 39 38 37 36 36 35 35 35 34 34 33 32 32 32 32 33 33 33 32 32 32 32 32 32 32 31 31 31 31 31 31 30 28 28 28 26 24 22 22 21 21 21 21
35 35 35 35 35 35 36 36 37 37 37 37 37 38 39 39 39 39 39 38 38 37 37 36 36 35 35 35 33 33 32 32 33 33 34 33 33 33 33 32 32 32 32 32 31 32 31 31 30 30 29 29 28 28 26 24 23 22 21 20 20 20
35 35 35 35 35 35 35 35 36 36 36 37 36 36 38 38 38 38 38 38 38 38 37 37 36 36 35 34 33 32 32 33 33 33 33 33 33 33 33 33 32 31 31 31 31 31 31 30 30 30 29 29 28 28 26 24 22 23 22 21 20 19
36 36 35 35 35 35 35 35 35 36 36 36 36 36 36 37 38 38 38 38 38 37 37 37 36 35 34 33 33 33 34 34 33 33 33 32 33 33 33 32 32 32 31 30 30 30 30 30 30 30 32 31 28 27 25 24 23 22 22 21 20 19
36 35 35 35 35 36 36 36 36 36 36 36 35 35 35 36 37 37 37 37 38 37 35 34 35 34 33 34 34 33 33 33 33 32 32 31 31 31 31 31 31 31 31 31 30 29 29 29 29 31 34 34 32 28 25 24 23 22 21 20 19 19
36 36 36 36 36 36 36 36 36 35 36 36 35 35 34 36 37 37 37 37 37 36 35 34 34 33 34 33 32 32 32 32 31 31 31 30 30 30 30 30 30 31 31 30 30 29 29 29 31 33 34 35 34 30 25 24 22 21 21 20 19 19
38 38 37 37 37 36 36 36 35 35 35 35 34 33 33 35 36 37 37 37 37 36 35 34 33 33 32 32 32 32 31 31 31 30 29 29 30 29 28 30 30 30 30 29 29 28 29 29 32 34 35 35 35 34 28 22 21 20 20 20 19 19
38 38 38 38 37 37 36 36 36 35 35 34 32 33 33 33 34 36 36 36 36 35 34 33 32 32 32 32 32 31 31 30 30 30 30 29 28 28 28 28 28 28 28 29 29 28 28 28 31 34 35 35 36 35 31 21 21 20 20 20 19 19
38 37 36 36 35 34 35 34 35 34 33 33 33 33 33 33 33 33 34 34 35 35 33 32 32 31 32 31 31 31 30 30 29 29 29 29 29 28 28 28 27 27 27 26 27 28 27 27 31 34 35 36 36 36 33 21 20 20 20 20 19 19
37 37 37 36 36 36 37 36 36 35 35 34 34 33 33 32 32 33 33 33 34 33 33 32 31 31 31 31 30 30 30 29 29 29 29 28 29 28 28 28 27 27 26 26 25 25 25 27 31 33 34 36 36 37 31 22 20 19 18 18 19 19
38 38 37 36 37 37 37 37 36 36 34 33 33 32 32 32 32 32 33 34 34 32 32 32 32 31 31 31 30 29 29 29 29 29 29 28 29 28 27 27 27 27 26 25 24 24 25 25 28 32 33 35 36 35 28 22 20 19 18 18 18 18
35 36 37 36 36 36 36 36 36 35 33 33 33 32 32 32 33 34 34 34 33 33 33 33 32 31 30 30 29 29 29 30 30 29 28 28 28 28 27 27 26 25 25 25 24 24 24 24 26 31 33 34 36 34 27 22 20 20 19 18 19 18
36 36 36 37 35 35 36 35 35 34 33 33 33 33 33 33 34 34 34 34 34 33 32 32 32 31 30 30 30 30 29 29 29 29 27 27 28 27 27 25 25 24 23 23 23 24 23 22 24 29 31 33 35 34 28 23 20 20 19 18 18 18
34 34 35 35 35 35 35 35 35 33 33 34 34 33 33 34 34 35 35 35 34 33 32 32 31 31 31 30 30 30 30 30 28 27 27 26 27 27 25 24 24 23 23 21 19 19 21 20 19 22 30 32 34 35 29 22 21 20 20 19 18 17
35 34 34 34 35 35 35 36 35 34 34 34 33 33 34 34 35 34 34 34 33 31 31 31 31 31 31 31 31 31 29 29 29 28 26 25 24 23 22 21 21 21 21 19 18 16 17 17 17 18 27 30 32 34 33 23 22 23 22 19 18 17
32 32 32 34 36 36 36 35 34 34 33 32 32 33 34 33 33 33 32 32 31 31 30 30 31 32 32 31 30 29 29 28 28 27 25 24 23 21 21 20 19 19 19 18 16 15 15 16 19 16 22 28 30 32 35 29 24 24 21 19 17 17
32 32 33 33 34 35 35 35 33 32 32 32 33 32 32 32 32 32 32 31 31 30 30 31 31 31 31 30 30 29 28 26 25 24 23 22 21 21 21 20 19 18 18 17 17 15 15 14 15 22 19 24 28 30 32 34 31 30 23 19 19 19
32 32 32 32 33 34 35 35 32 32 31 32 32 31 31 31 31 31 31 30 30 30 30 30 30 30 30 29 28 28 27 24 24 22 22 22 21 20 20 20 18 17 16 17 18 18 17 16 14 17 23 22 25 28 30 31 33 34 26 21 21 21
31 31 30 31 31 33 33 34 33 31 31 30 30 30 30 29 29 30 30 29 29 29 29 28 28 28 28 27 27 26 26 24 22 22 20 19 20 19 19 19 17 17 17 18 18 20 20 17 14 13 17 23 24 26 27 29 30 31 33 29 25 23
31 30 29 28 28 29 30 30 32 31 30 27 27 27 27 27 27 27 27 26 26 26 26 26 25 26 26 25 26 27 27 25 22 22 20 18 19 19 19 18 16 16 16 17 18 19 19 13 11 12 10 16 20 22 25 27 28 28 29 29 28 30
30 29 28 26 24 25 25 24 24 25 24 23 23 24 25 26 26 25 23 24 23 21 23 25 24 23 22 22 23 23 24 23 22 21 19 18 18 17 17 17 17 16 16 16 17 18 15 15 11 10 7 7 9 12 15 18 20 24 26 24 24 26
29 28 27 25 23 23 23 22 20 19 19 19 20 20 23 24 24 24 22 21 20 20 21 23 19 21 22 21 22 22 20 19 20 20 20 18 18 17 17 16 16 17 17 17 17 15 13 15 14 9 7 6 7 8 9 11 12 13 14 17 19 21
26 25 24 21 20 21 20 18 16 15 15 16 15 20 22 21 19 18 17 16 17 17 16 18 18 19 19 17 14 15 14 16 16 18 17 15 12 17 18 17 17 16 12 13 14 13 14 15 15 12 17 14 16 12 9 8 10 11 13 18 22 21
23 22 20 18 18 19 18 15 14 13 13 14 14 17 21 19 18 17 14 14 14 11 12 12 11 9 12 13 12 13 10 17 25 18 15 12 20 25 27 24 17 11 10 13 14 14 16 17 14 24 26 26 25 25 25 22 21 20 18 20 24 23
20 20 18 17 17 16 13 9 7 7 8 8 12 14 16 17 17 14 12 12 11 12 10 8 8 8 7 7 8 7 10 8 11 24 26 25 24 25 26 28 28 28 25 18 12 15 25 25 26 27 28 28 28 29 29 28 28 27 27 27 24 20
21 20 17 16 15 13 10 7 5 4 5 6 8 12 14 14 16 15 12 10 8 12 10 8 9 8 8 5 5 7 8 10 10 11 20 24 25 26 27 27 28 28 28 29 26 19 14 22 26 28 28 28 29 28 29 29 29 29 29 29 29 21
19 18 17 15 12 8 7 5 4 3 4 4 7 10 13 13 14 13 10 10 11 10 11 9 9 8 8 6 7 4 6 6 7 10 9 11 20 22 23 25 26 27 28 28 28 29 28 26 26 27 28 28 28 28 28 28 29 29 30 29 25 22
17 15 13 9 7 5 5 4 2 2 1 2 4 10 12 12 12 12 11 10 10 10 9 9 8 7 6 5 4 2 4 4 3 1 4 4 7 8 13 19 22 22 23 24 25 25 25 25 25 26 26 26 26 26 27 27 26 29 29 28 23 22
13 11 9 7 5 4 3 2 1 0 0 1 3 9 10 10 9 9 8 8 8 8 8 6 7 5 4 3 2 2 2 2 2 4 -0 -0 1 3 3 -0 4 12 21 18 20 22 23 23 23 24 24 24 24 24 24 24 21 20 21 22 21 21
9 8 6 5 5 4 2 1 1 0 -1 -1 2 7 7 7 8 7 7 5 5 5 5 3 3 3 3 2 1 -1 1 1 2 2 -1 1 -0 -3 -4 -4 -6 -0 9 18 17 18 19 20 21 21 22 21 22 21 20 14 13 12 13 13 14 14

ECMWFFLT1_sfc_temp_060.txt.gz
Temp
37 38 38 39 40 42 44 45 45 46 45 44 44 42 42 42 42 43 43 44 42 42 42 42 41 41 42 41 41 40 39 38 36 34 33 32 32 32 31 31 31 30 30 30 30 30 31 30 30 29 29 29 29 29 28 27 28 28 27 27 27 26
37 37 38 38 39 40 42 43 44 45 46 44 43 42 41 41 42 43 43 42 42 41 42 41 41 41 40 39 39 39 38 37 35 34 32 32 32 32 31 31 31 30 30 31 31 31 30 29 28 28 28 29 29 28 28 27 29 28 27 26 26 27
35 36 37 37 37 38 39 41 43 45 45 45 44 43 42 41 42 42 43 42 40 40 40 40 39 39 39 39 38 38 37 36 34 34 33 31 31 31 31 31 31 31 31 31 31 30 29 28 28 28 28 28 29 30 30 29 28 27 26 26 25 25
35 35 35 35 36 37 38 39 41 42 44 45 44 43 41 40 41 42 42 40 40 40 40 40 39 39 38 38 37 36 34 34 34 33 31 32 31 31 31 32 31 31 31 30 29 29 29 28 29 28 30 30 30 29 29 29 28 26 25 25 25 24
35 35 35 36 36 37 37 38 40 41 42 42 43 43 42 42 41 41 41 40 39 39 40 39 38 38 37 37 37 35 34 33 33 32 32 32 31 31 32 32 31 31 30 30 29 29 29 30 30 31 31 31 31 30 29 29 28 26 25 25 25 24
33 34 34 35 35 36 36 38 38 40 41 41 41 41 42 41 41 41 40 39 39 39 39 38 37 36 36 37 37 35 34 33 33 32 33 33 32 32 31 31 31 31 31 31 31 31 31 31 31 30 31 32 31 30 29 28 27 26 26 26 24 23
33 34 35 35 35 36 36 37 38 38 39 39 40 41 42 41 41 40 39 39 39 39 38 38 37 36 35 36 36 35 34 33 33 32 33 33 32 32 31 30 31 31 32 32 32 32 31 31 30 31 31 31 31 31 30 29 28 27 26 25 25 26
34 34 34 35 35 36 36 37 37 38 38 38 40 41 41 41 41 40 39 39 39 38 38 38 37 37 37 36 36 34 33 33 33 33 33 33 32 31 31 32 32 32 33 33 33 32 32 31 31 31 31 31 30 30 29 29 28 28 27 26 26 26
34 34 35 35 35 36 36 36 37 37 37 37 38 40 41 41 40 40 40 39 39 39 38 38 37 37 37 36 34 33 33 33 33 33 33 33 33 32 32 32 32 33 33 33 33 32 32 32 31 31 31 30 30 29 28 28 28 27 27 27 26 26
34 34 34 34 35 35 35 36 37 37 37 37 37 38 39 40 40 40 40 39 39 39 39 39 38 38 37 36 35 34 34 34 33 33 33 33 33 33 33 33 33 33 33 33 32 32 32 31 31 31 31 30 29 29 29 28 28 27 26 25 25 25
35 34 34 34 34 34 35 35 35 36 36 37 37 37 38 38 39 39 39 39 39 39 39 39 38 38 37 36 35 34 33 33 33 33 33 33 34 34 34 33 33 32 32 32 32 31 31 31 32 32 31 30 29 29 29 28 27 27 26 25 25 24
35 34 34 34 34 35 35 35 35 36 36 36 36 36 36 36 37 39 39 39 39 39 39 38 38 37 37 36 35 33 33 33 33 33 33 33 33 33 33 33 32 32 32 31 31 31 31 31 32 31 33 32 30 30 29 28 27 27 27 26 24 24
35 34 34 35 35 35 36 36 36 36 35 36 35 36 35 35 36 38 39 39 39 39 38 38 37 36 35 35 35 32 32 32 32 32 32 32 32 32 31 32 31 31 32 31 31 30 30 31 31 32 35 35 34 30 29 27 27 27 27 26 25 25
35 35 35 36 36 36 36 36 35 35 35 35 35 35 34 35 36 36 37 39 39 38 38 37 36 35 35 34 33 32 32 32 31 31 31 31 31 31 30 31 31 31 31 31 31 30 30 30 32 34 35 36 35 33 29 28 26 26 26 26 25 25
38 38 37 37 36 36 36 36 35 35 35 35 35 33 33 34 34 34 35 36 37 37 37 36 35 34 33 33 33 32 31 31 30 30 30 30 30 30 29 31 31 30 31 30 30 29 30 30 33 35 36 36 36 35 31 27 27 26 26 26 25 25
39 39 38 37 36 36 35 35 36 35 34 34 32 33 33 33 33 33 34 34 36 36 36 35 34 33 33 33 33 32 31 30 30 31 31 31 30 29 30 29 29 30 29 30 30 29 29 29 32 35 36 36 36 36 33 26 26 26 26 26 25 25
40 37 35 35 34 34 34 34 34 33 33 33 32 32 32 32 32 32 33 33 35 35 35 35 34 34 33 33 32 32 31 30 30 30 30 30 30 29 28 29 28 28 28 28 28 29 28 29 33 35 36 36 37 37 35 27 26 25 25 25 25 25
39 37 35 34 34 34 35 34 33 33 32 32 32 31 32 33 33 33 33 33 33 33 34 34 33 33 33 32 31 31 31 30 30 30 29 29 29 29 29 28 28 28 28 28 27 26 27 28 33 34 36 36 37 37 33 28 25 24 23 23 24 24
36 36 34 33 34 33 33 33 33 33 31 31 31 31 31 32 32 33 33 33 33 33 33 34 34 33 32 31 31 30 30 30 29 30 29 29 29 29 28 28 28 28 27 27 26 26 27 27 31 34 35 36 37 36 32 28 25 24 22 23 23 24
33 32 34 32 32 32 33 33 33 32 31 31 31 32 31 32 32 33 32 33 33 33 32 33 32 32 31 31 30 30 31 30 30 29 29 29 28 28 27 28 27 27 26 26 26 26 26 27 29 34 35 35 36 35 32 30 26 25 23 22 23 22
32 32 32 32 31 31 32 33 32 31 30 30 31 32 32 32 32 33 33 32 32 31 31 31 31 32 31 30 30 30 30 29 29 29 28 28 28 28 28 27 27 25 25 25 26 28 27 26 28 33 34 35 35 34 32 30 26 25 24 23 22 22
32 31 32 32 31 31 32 32 32 31 30 30 31 31 31 31 33 33 33 32 31 31 30 31 31 31 31 30 30 30 30 30 28 28 28 27 28 27 27 26 26 26 26 25 24 25 26 25 25 27 33 34 34 35 32 28 25 25 25 24 24 23
32 32 31 31 31 31 32 32 31 30 30 30 30 30 31 31 31 32 32 32 31 30 30 31 32 31 31 31 30 30 29 29 29 28 27 26 26 26 26 25 25 25 25 25 24 23 23 23 23 24 30 31 33 34 34 30 27 27 26 25 23 22
30 29 29 29 30 31 31 32 31 30 29 29 29 29 31 32 32 32 32 31 31 31 31 31 31 32 31 30 30 29 28 29 29 28 27 27 26 25 25 25 24 24 24 24 22 21 21 22 23 21 26 29 31 33 34 31 28 27 24 24 22 22
29 29 28 29 29 31 31 31 30 29 29 29 27 29 31 32 32 32 31 31 30 30 30 30 30 30 30 30 30 29 28 28 27 27 26 26 25 25 24 24 23 22 22 22 22 21 20 20 19 24 21 26 29 31 32 33 32 33 27 23 23 24
28 28 28 28 29 30 31 31 29 29 29 29 30 31 31 31 31 31 31 31 30 30 29 29 30 30 30 30 30 29 28 27 27 26 25 25 24 24 23 23 22 21 21 21 23 22 21 19 17 20 24 23 26 28 30 31 32 33 29 24 23 25
28 28 27 28 29 31 32 32 32 31 30 30 30 31 31 31 31 31 30 30 30 29 29 29 29 29 29 29 29 28 27 25 24 24 22 22 23 22 22 22 21 21 21 20 20 21 20 18 16 15 20 25 26 27 29 30 31 31 32 29 27 26
28 27 26 26 27 28 29 31 33 31 30 29 30 30 30 30 30 30 29 29 29 28 28 28 27 27 27 27 28 28 27 26 24 25 22 21 21 21 21 19 18 18 18 18 19 19 19 16 14 14 13 18 22 25 27 29 29 29 30 29 28 29
28 27 27 25 25 24 25 24 25 26 26 27 28 29 29 29 29 27 26 26 25 25 26 26 25 24 24 23 23 23 23 23 22 22 21 20 19 18 17 18 17 17 16 17 18 17 16 14 12 11 9 9 11 13 16 20 21 25 27 25 24 25
26 26 26 25 24 23 20 19 19 20 22 23 25 26 27 26 26 24 21 20 20 21 22 23 19 21 21 19 21 21 19 18 20 20 20 19 19 18 18 17 17 17 18 17 17 15 13 14 11 10 11 10 9 10 11 10 11 11 12 14 16 17
25 24 24 23 22 20 17 15 15 15 18 20 22 26 25 23 21 21 20 20 20 19 19 19 20 20 19 17 15 13 15 17 17 18 16 15 17 19 19 18 18 17 15 16 15 14 15 13 13 14 19 16 18 14 9 7 8 10 10 15 20 18
25 24 22 21 19 16 14 13 12 12 13 15 18 24 23 21 20 20 18 18 18 17 17 16 16 15 16 17 16 16 15 20 23 19 19 15 20 25 27 25 17 14 13 14 14 14 16 16 13 24 27 27 27 27 26 22 20 20 17 19 24 23
23 22 18 16 13 12 11 10 10 12 12 14 18 22 22 21 20 18 16 16 16 16 15 14 13 12 13 14 15 16 15 13 17 26 27 25 25 26 27 28 29 28 25 18 10 14 25 26 27 28 28 28 29 29 29 30 30 29 28 27 23 21
21 19 16 14 12 10 10 9 8 8 9 10 14 19 20 21 21 19 16 15 13 14 14 14 14 13 12 10 10 12 13 14 13 16 24 26 26 27 27 27 28 28 29 29 26 18 15 22 27 28 28 29 29 29 29 29 29 29 30 30 30 24
19 16 14 12 10 9 10 9 7 6 7 8 11 17 18 18 18 16 14 13 13 13 13 13 13 12 12 11 10 9 11 12 12 13 10 13 23 25 25 25 25 26 26 27 27 28 27 26 26 27 27 27 27 27 27 28 29 29 30 30 25 23
15 13 11 10 10 10 9 8 5 4 3 4 9 15 16 15 15 15 14 14 13 13 12 12 11 11 10 9 9 8 8 7 7 5 6 5 6 10 17 20 22 23 23 25 25 24 24 24 24 25 25 25 25 25 25 25 24 26 26 23 19 19
12 10 8 8 8 8 7 5 3 1 1 3 8 13 13 13 13 11 10 10 11 12 11 10 10 8 7 7 6 6 5 5 2 5 3 2 3 3 2 -1 2 13 21 18 18 20 22 22 22 23 23 23 22 22 23 22 16 13 14 14 15 14
9 7 7 7 7 7 5 2 1 0 -1 1 6 11 11 11 11 10 10 8 8 8 8 6 6 6 6 5 3 3 3 4 3 5 0 1 -1 -2 -5 -2 -5 -1 10 17 16 18 19 20 21 20 20 19 20 19 19 9 8 9 10 10 11 10

ECMWFFLT1_sfc_temp_063.txt.gz
Temp
38 39 39 40 42 43 45 46 46 47 47 47 48 48 48 47 47 46 46 46 45 44 45 44 44 43 44 44 44 44 43 42 42 41 41 40 38 37 37 36 36 36 36 36 35 35 35 35 35 35 36 37 36 36 35 34 35 35 34 33 33 33
37 38 39 39 40 41 43 44 45 45 46 46 46 47 46 45 45 45 45 45 45 44 44 44 44 43 43 43 43 43 42 42 40 40 39 38 37 37 37 37 36 36 35 35 35 35 35 35 35 35 35 36 36 35 34 34 34 34 34 33 34 33
36 37 38 39 39 40 42 43 44 45 45 45 45 45 44 43 44 44 45 44 44 43 42 42 42 42 43 42 43 42 42 41 40 39 40 38 37 36 36 36 36 36 36 35 35 35 35 35 34 35 35 36 35 34 34 33 35 34 33 33 32 32
36 36 36 37 37 38 39 41 43 43 44 45 44 44 43 43 43 43 44 43 43 42 42 42 42 42 42 41 41 41 40 40 40 40 39 38 37 36 36 36 36 36 35 35 35 35 35 35 34 34 35 34 34 33 33 33 34 33 32 32 32 32
36 36 36 37 37 38 38 39 42 43 43 43 43 43 43 43 43 43 42 42 42 42 42 42 41 40 40 40 40 40 39 39 39 39 38 38 35 35 36 36 36 35 35 35 35 34 34 34 33 34 35 35 34 34 33 33 33 33 32 32 31 31
34 35 35 36 36 37 38 39 40 41 42 43 43 42 42 42 42 41 41 40 41 41 41 41 40 40 40 40 40 39 39 37 37 37 38 37 35 35 35 36 35 35 35 35 34 34 34 33 33 34 35 35 34 34 33 33 33 33 33 32 31 29
34 35 36 36 37 37 37 38 39 40 41 42 42 43 42 42 42 41 41 40 40 40 40 40 40 39 39 39 40 40 39 38 38 37 37 35 35 35 35 35 35 35 35 35 35 34 34 34 34 34 34 34 34 34 33 33 33 33 33 32 31 30
35 35 35 36 36 37 37 38 39 39 40 41 42 42 41 41 41 41 41 40 40 39 40 40 39 39 39 39 39 39 39 38 37 36 36 35 34 34 35 34 34 35 35 36 36 36 35 35 34 34 34 33 33 33 33 33 33 33 32 31 30 30
35 36 36 36 36 36 37 37 38 39 39 40 40 41 41 41 41 41 41 40 41 39 39 40 39 39 39 39 39 39 38 37 37 36 35 35 35 35 34 34 34 35 36 36 35 35 34 33 33 34 34 33 33 33 32 32 32 32 31 30 30 30
37 36 36 35 36 36 36 37 38 38 39 39 39 40 40 40 40 40 40 40 40 40 40 40 40 39 39 40 39 38 37 36 36 36 35 35 36 35 35 34 35 35 36 35 35 35 34 33 33 33 33 33 32 32 32 32 31 31 31 30 30 30
38 37 36 36 35 36 36 36 37 37 38 39 39 39 39 40 40 39 40 40 40 40 40 40 39 39 39 38 38 37 36 36 35 35 35 35 35 35 35 35 35 34 34 34 34 33 33 33 33 33 33 32 32 32 32 31 31 31 30 29 28 28
38 37 36 35 35 36 36 36 36 37 37 38 38 38 38 38 39 39 39 39 40 40 40 40 39 38 38 37 37 36 36 35 35 34 34 34 35 35 35 35 35 34 33 33 33 33 33 33 33 33 34 34 32 32 31 31 30 31 30 29 27 27
37 36 35 36 36 36 36 37 37 37 37 37 37 38 38 38 39 39 39 39 40 40 40 39 38 38 37 37 37 36 34 34 33 33 33 33 33 33 33 33 33 33 33 33 33 32 33 33 32 34 36 36 35 32 31 30 29 30 30 30 28 28
38 37 37 38 37 37 36 36 36 36 36 37 37 37 37 37 38 38 38 39 39 39 39 39 38 37 36 36 35 33 33 33 32 32 32 32 32 32 32 32 33 33 33 33 33 33 32 32 33 36 36 37 36 33 31 30 29 28 30 30 29 29
42 41 40 39 39 37 37 37 36 36 37 36 37 37 36 37 37 38 37 37 38 38 39 38 37 36 35 34 34 33 33 32 32 31 31 31 32 32 31 33 33 32 33 33 32 32 32 32 35 36 37 37 37 35 32 29 29 28 29 30 29 29
43 42 42 41 40 39 38 37 38 37 37 37 36 36 36 36 36 37 36 36 37 37 37 37 36 35 34 34 34 33 32 32 31 32 32 33 32 31 31 31 31 32 32 32 32 31 31 31 34 37 37 37 37 36 34 29 29 29 30 30 29 29
45 42 40 38 37 36 36 36 37 35 35 35 35 35 35 35 35 35 35 35 35 35 35 36 36 35 34 33 33 32 32 32 32 32 32 32 32 31 30 31 30 30 29 29 30 30 30 30 35 36 37 37 37 37 35 29 29 29 29 29 29 29
43 42 41 36 35 35 36 36 35 35 34 34 34 34 34 34 34 34 34 34 34 34 35 34 34 34 33 33 32 32 32 32 31 31 31 31 31 31 31 30 30 29 28 29 28 29 28 29 35 36 36 37 37 37 34 30 28 28 27 27 29 29
39 39 36 33 35 34 34 34 34 34 32 32 32 32 32 33 32 33 33 33 33 34 34 34 33 33 32 32 32 31 31 31 31 31 31 30 31 30 29 29 29 29 28 27 27 27 27 28 33 36 36 36 37 36 33 32 29 28 26 27 29 29
34 33 34 33 33 33 33 33 33 33 32 31 31 31 31 32 32 33 33 33 32 33 33 33 32 31 31 31 31 31 31 31 31 31 31 31 30 29 29 29 28 27 27 27 26 27 27 26 31 35 35 36 36 35 33 32 30 29 28 27 29 28
31 31 31 32 31 31 32 32 32 32 31 30 30 31 31 31 31 32 31 31 32 32 32 33 33 33 32 31 31 31 31 31 31 31 31 30 30 28 28 28 28 27 26 27 26 28 27 26 29 34 35 36 36 35 33 32 31 29 29 29 29 30
31 31 31 31 30 31 31 32 32 30 30 30 30 30 30 31 32 32 33 32 31 31 31 32 32 32 32 31 31 31 31 31 29 29 29 29 29 28 28 27 27 26 26 26 26 27 27 27 27 29 34 34 34 35 33 32 31 29 29 30 30 29
31 31 30 30 30 31 31 31 31 29 29 29 29 29 31 31 31 31 31 31 30 30 30 31 32 31 32 32 31 31 30 30 30 29 29 28 28 28 27 26 26 26 26 26 26 25 25 26 25 26 31 32 33 34 33 32 31 31 30 30 29 29
29 28 28 29 30 31 31 31 30 29 29 29 29 29 30 30 30 31 29 29 29 29 29 29 30 31 31 31 31 30 29 30 29 29 28 28 28 27 26 26 26 26 26 26 25 24 25 25 27 25 29 31 32 34 35 32 31 31 30 29 28 28
28 28 28 28 29 30 31 30 29 28 28 28 28 29 30 30 30 29 29 28 28 28 29 29 30 30 31 31 31 30 29 28 28 28 28 27 26 26 26 25 25 24 24 24 24 23 23 22 23 27 25 29 32 33 33 34 32 33 31 29 28 28
27 27 27 27 28 29 30 30 28 28 28 28 28 28 29 30 30 30 29 29 28 28 29 30 30 31 31 31 30 30 28 28 28 27 27 27 26 25 25 25 24 24 23 23 23 22 22 22 21 24 27 26 29 31 32 33 34 34 31 30 29 29
27 27 26 27 27 27 28 29 29 28 27 28 29 30 30 30 30 30 29 29 29 28 28 29 29 29 30 30 30 29 28 27 27 26 26 26 26 25 25 24 23 23 23 23 23 23 22 21 20 19 24 27 27 29 30 31 32 33 33 30 30 30
27 27 25 24 24 26 26 26 30 29 28 28 29 30 29 29 29 29 29 28 29 29 29 28 29 29 29 29 30 30 29 27 27 26 25 25 25 24 24 23 22 22 22 22 22 22 22 19 19 18 18 22 25 27 29 30 30 30 31 31 30 31
27 25 25 23 21 22 22 23 25 27 27 28 30 30 30 30 30 29 28 28 28 28 28 28 28 28 28 28 28 28 27 27 27 25 24 24 24 24 23 23 22 21 21 21 20 20 20 18 17 17 15 14 16 18 19 21 22 24 25 25 25 24
25 24 22 21 20 20 20 21 20 21 24 25 27 28 29 29 29 28 27 26 26 27 27 26 21 23 24 24 24 24 23 24 25 24 23 23 23 22 21 21 21 21 20 20 19 18 17 18 17 16 16 16 14 14 15 14 14 14 16 16 17 18
24 22 21 19 18 18 17 16 16 17 22 25 26 27 27 26 24 24 23 24 25 24 24 24 24 24 23 22 21 20 22 24 24 24 21 19 22 24 23 22 22 21 19 20 19 18 17 16 17 17 21 18 20 17 14 12 14 14 14 17 22 20
22 21 19 17 17 17 17 16 16 16 19 23 26 26 25 24 23 23 22 23 22 21 22 22 22 21 22 21 20 20 19 21 25 23 21 18 23 27 28 26 20 19 18 18 17 18 18 17 17 23 27 27 27 27 26 23 23 23 21 22 26 26
20 18 16 16 17 16 16 16 16 17 18 21 25 25 24 24 23 21 20 20 20 20 20 19 19 19 19 19 20 19 19 19 23 28 27 25 25 27 29 29 28 26 23 20 13 16 27 26 27 27 28 29 29 29 30 30 29 29 28 28 25 23
18 17 15 15 15 16 15 14 13 14 15 18 22 23 23 23 23 21 19 19 18 18 18 18 17 17 17 16 17 18 18 19 18 20 26 28 28 29 29 29 29 29 28 27 24 19 20 25 27 28 28 28 29 28 29 29 29 29 30 30 30 25
18 16 16 15 15 15 15 13 12 11 13 14 19 22 22 22 22 20 18 17 16 16 16 16 16 15 16 15 15 15 16 18 18 16 16 22 28 28 28 28 28 28 28 29 28 28 26 27 27 27 27 26 26 27 27 27 27 27 26 26 22 20
16 15 14 14 14 14 14 12 9 7 8 9 15 20 21 20 19 18 18 16 15 15 15 15 15 15 15 15 15 15 15 15 16 15 16 16 15 15 19 23 25 26 26 26 26 25 25 25 25 25 25 24 24 25 25 24 23 25 24 21 15 16
14 13 13 13 13 13 11 7 5 4 4 8 14 16 16 15 15 14 13 12 13 15 14 13 13 12 11 10 11 11 11 11 10 12 13 14 13 11 9 6 11 18 22 19 21 23 23 23 23 23 22 22 22 22 23 20 13 11 10 10 11 11
11 11 11 11 11 10 7 4 3 2 0 4 9 13 13 12 12 12 12 10 10 10 10 9 8 9 9 9 7 7 7 7 9 10 7 6 7 7 4 0 2 4 13 18 18 21 21 21 21 20 20 19 19 19 19 6 5 5 7 6 6 7

ECMWFFLT1_sfc_temp_069.txt.gz
Temp
63 62 60 60 60 60 60 60 60 59 60 60 60 59 60 60 60 60 59 59 57 56 57 56 56 55 54 53 54 53 53 52 52 51 52 52 49 47 45 45 43 43 43 44 44 45 45 45 45 45 45 46 47 48 48 47 48 47 46 46 46 46
62 61 59 58 58 58 59 59 59 59 59 59 59 60 61 60 60 59 58 58 58 57 57 56 56 55 54 53 52 51 51 51 52 52 50 51 48 46 44 43 43 43 43 44 44 43 43 43 44 45 45 45 46 48 47 46 46 46 45 45 45 45
61 59 59 58 58 58 58 58 58 58 59 58 59 58 59 59 60 59 57 57 57 56 55 54 54 52 53 53 53 52 51 51 51 51 49 47 45 44 43 43 43 43 43 43 43 43 43 43 43 44 45 46 46 47 46 46 46 46 46 44 43 44
59 57 56 56 56 55 56 57 57 57 58 58 58 59 59 59 58 59 58 57 57 56 54 53 53 52 52 51 50 50 50 50 49 48 45 44 43 43 43 44 44 44 43 43 43 43 43 43 42 43 45 46 46 46 45 45 47 46 44 44 43 44
59 57 55 55 55 55 55 55 56 56 57 58 58 57 58 59 59 59 58 57 56 55 55 53 51 51 50 50 50 49 48 47 47 46 45 44 43 43 43 43 43 43 43 42 42 43 43 42 41 42 44 46 46 45 44 45 46 45 44 43 43 43
56 55 54 54 54 54 54 55 55 56 57 57 57 57 57 58 58 58 57 56 55 55 53 51 51 50 50 49 49 49 48 46 45 45 45 44 43 41 42 42 42 42 42 41 41 42 42 42 42 42 44 45 46 45 45 46 45 45 45 44 43 43
55 55 56 55 55 55 55 55 55 55 56 57 56 56 57 57 58 57 56 55 53 52 51 50 50 49 48 48 48 48 48 46 45 44 44 43 42 41 41 41 41 41 41 41 41 41 41 42 42 42 42 43 45 45 45 45 45 45 45 44 43 41
59 58 56 56 56 54 54 54 54 55 56 56 56 56 56 56 56 56 54 53 52 52 51 50 50 48 48 47 47 47 47 46 44 43 42 42 41 41 40 40 40 41 41 41 41 41 42 42 42 41 42 43 44 45 45 45 45 44 44 43 42 42
60 59 58 57 56 55 54 54 54 54 54 55 55 56 56 55 55 54 53 52 52 51 51 50 50 49 49 48 47 47 46 45 44 43 42 42 41 40 40 39 39 40 41 41 41 41 41 42 42 42 43 43 44 44 44 43 43 43 43 42 42 41
61 60 60 58 56 55 54 54 54 54 54 53 54 54 54 54 53 52 51 51 50 50 50 50 50 50 49 49 48 47 46 45 44 43 43 42 41 40 40 40 39 40 41 41 41 41 41 41 42 43 43 43 43 43 43 43 42 41 40 40 39 39
61 62 61 58 56 55 54 53 53 53 53 53 54 53 52 53 52 51 50 50 49 50 50 50 50 49 48 47 47 46 45 44 43 42 41 40 40 39 41 41 41 41 41 41 42 42 42 42 43 43 43 42 42 43 43 42 41 40 38 37 36 36
64 64 64 61 57 56 54 53 53 53 52 51 51 51 52 52 50 50 49 49 49 50 50 50 49 48 47 46 45 44 44 43 42 41 40 39 39 38 39 40 40 40 39 40 41 41 41 41 42 40 41 42 43 43 41 40 38 38 37 36 35 35
68 66 65 63 60 58 57 56 55 53 52 51 51 51 51 51 50 49 49 49 49 49 49 49 47 47 45 45 45 44 43 41 40 40 38 38 38 37 37 38 37 38 38 39 39 39 39 40 40 39 42 43 43 41 39 38 38 38 37 36 34 33
70 68 66 64 61 59 57 55 54 51 50 50 50 50 51 50 49 49 49 49 49 49 48 47 46 45 44 44 43 42 40 39 38 37 36 36 36 37 37 37 37 37 37 38 39 39 39 40 38 39 40 40 40 39 38 38 36 36 38 36 34 33
72 72 69 63 61 59 57 56 52 51 51 50 50 50 49 49 49 48 48 48 48 48 47 47 45 44 44 43 41 39 38 37 36 36 35 35 35 35 35 37 36 36 37 37 37 37 38 38 37 39 39 39 40 40 39 37 36 36 35 35 34 33
72 72 70 65 63 61 59 55 54 52 51 51 49 48 48 48 47 48 47 47 46 47 47 46 42 42 43 41 39 39 37 36 35 36 36 35 34 34 34 34 34 35 35 36 36 36 36 36 36 38 38 38 39 40 40 36 35 34 35 34 34 33
70 70 69 67 62 57 54 53 53 51 49 49 47 47 46 47 46 46 46 46 46 46 45 44 43 42 41 40 38 37 37 36 36 35 35 35 34 33 33 34 34 34 34 34 34 34 34 34 37 38 38 38 39 39 38 34 34 34 33 34 33 32
68 69 69 62 56 54 53 52 51 50 48 48 46 46 46 45 45 45 46 46 46 45 45 43 43 42 41 40 37 36 36 35 35 34 35 35 35 35 35 34 34 33 33 33 33 33 32 33 37 37 38 38 39 38 34 33 32 32 31 31 32 32
67 63 56 53 53 52 51 51 49 48 47 45 46 44 44 44 43 45 45 45 44 44 44 43 42 39 38 37 36 35 35 35 34 35 35 34 34 34 33 33 33 33 33 32 32 32 32 32 35 37 37 38 38 35 32 32 32 31 30 30 31 30
53 51 53 52 51 51 50 49 47 47 45 44 43 43 43 42 42 44 44 44 44 44 44 43 40 38 37 36 35 34 35 35 35 34 35 34 33 33 32 32 32 32 32 31 31 31 31 31 34 37 37 37 37 34 31 32 31 30 29 29 30 30
51 51 49 50 49 48 48 46 45 44 43 42 42 42 42 41 42 43 42 42 44 44 40 41 39 37 36 35 35 34 34 34 34 34 34 34 33 32 32 32 31 30 30 30 30 32 31 31 33 36 37 37 36 35 33 33 32 30 29 29 29 30
48 47 48 48 48 46 45 45 44 41 43 41 42 41 41 42 42 44 44 44 43 40 39 38 36 36 35 34 34 34 34 34 34 33 33 33 33 31 31 31 30 29 29 29 29 30 30 31 32 35 37 37 36 36 34 34 32 31 30 30 30 30
48 48 48 47 45 43 43 43 41 40 42 41 40 39 41 42 43 43 43 42 41 38 38 37 36 35 35 35 34 34 34 34 33 33 32 31 31 31 30 29 29 28 28 29 29 29 29 31 32 34 37 37 37 37 35 34 33 33 32 32 32 32
45 44 43 43 43 42 41 41 39 40 40 39 38 41 43 42 42 42 41 40 37 37 36 35 35 35 34 34 34 33 33 34 33 33 32 32 30 29 28 28 28 28 27 28 28 28 28 30 31 32 35 37 37 37 36 34 34 34 34 33 33 33
43 43 42 41 40 41 40 38 36 36 36 37 38 41 41 41 41 40 38 36 35 34 34 34 34 34 34 34 34 33 32 32 32 32 32 30 29 28 27 27 27 27 26 26 27 28 27 28 29 31 32 35 36 37 36 35 34 35 34 33 32 32
42 41 39 40 40 39 38 36 35 35 36 36 40 39 39 39 37 36 35 34 34 33 33 33 33 33 34 34 33 33 32 31 31 31 31 30 29 28 27 27 27 27 26 25 26 26 27 28 28 30 31 32 35 36 36 35 35 35 33 33 32 32
39 38 37 39 37 38 36 36 34 34 34 37 37 35 35 35 34 34 33 33 33 33 33 33 34 33 33 33 33 31 31 30 31 30 30 29 29 28 27 27 27 26 26 26 26 26 27 27 28 28 30 31 32 34 35 35 35 35 35 33 33 34
36 35 35 37 37 37 35 36 35 33 34 36 36 35 34 33 33 32 32 32 32 32 32 32 32 33 32 33 33 32 32 31 31 30 30 30 29 29 28 27 28 28 27 27 28 27 27 26 27 27 28 29 30 31 33 34 34 34 34 33 32 31
34 34 34 33 34 35 35 34 35 35 35 34 35 34 33 33 32 32 32 31 32 32 32 32 32 32 32 33 33 33 33 32 32 31 31 31 30 29 29 29 28 28 28 28 29 28 27 25 26 27 27 28 29 29 29 30 30 31 30 31 30 30
33 33 32 32 34 33 33 33 33 33 34 33 33 33 33 32 32 31 31 31 32 32 33 32 29 31 33 33 32 32 32 33 33 32 32 31 31 30 30 29 28 29 29 29 29 28 27 26 26 27 26 27 28 28 28 28 28 27 28 27 27 26
32 32 31 30 30 31 31 31 31 32 32 32 32 33 32 32 31 31 31 32 32 32 32 32 33 33 33 32 32 32 33 33 33 33 31 31 34 34 32 30 30 31 31 31 29 28 27 27 27 27 29 27 29 27 26 25 26 27 27 28 28 24
31 29 28 28 28 28 29 29 30 32 32 33 33 33 32 31 31 31 31 32 32 31 32 32 32 31 31 30 28 27 27 28 31 32 30 28 30 31 33 34 32 32 32 30 30 30 28 27 28 30 30 30 30 30 30 30 30 30 28 29 30 28
28 27 26 26 26 27 27 28 30 30 31 32 33 32 32 31 31 31 31 31 31 31 32 31 30 30 30 29 29 28 26 26 28 31 31 30 30 31 31 31 32 33 32 29 26 29 32 31 31 30 30 29 29 30 30 30 30 30 30 31 28 27
26 25 25 25 25 25 25 26 27 29 29 31 31 31 31 31 31 30 31 31 31 30 31 31 29 29 29 29 29 28 27 26 25 26 29 30 30 30 30 31 31 31 31 30 29 28 28 30 30 30 30 29 30 29 30 30 30 30 30 30 30 25
27 26 26 25 25 25 25 24 24 25 28 29 30 31 31 31 31 30 30 29 29 30 29 29 29 29 28 28 27 27 27 26 25 24 24 27 30 31 30 30 30 30 30 30 30 30 29 29 30 30 30 30 30 30 30 30 30 30 30 30 27 25
26 24 24 24 24 24 23 22 21 21 24 28 29 30 30 30 30 30 29 29 29 29 28 28 28 29 28 28 28 28 28 27 26 25 25 23 24 26 28 30 30 30 30 30 30 30 30 30 30 30 30 30 30 29 28 28 26 28 28 27 22 23
24 24 23 23 23 22 20 19 17 16 18 25 29 29 29 29 29 29 24 23 25 29 28 28 28 28 28 28 27 27 27 26 25 25 24 23 22 22 21 21 24 28 29 28 28 29 28 28 27 27 27 27 27 27 27 26 23 21 20 20 18 19
22 22 21 21 20 19 17 15 14 14 16 24 28 28 27 27 27 26 26 26 26 28 28 28 27 28 27 27 28 27 25 24 24 24 23 23 22 20 18 17 18 20 25 27 27 27 26 26 25 25 25 25 25 25 25 19 19 18 17 16 15 15

ECMWFFLT1_sfc_temp_072.txt.gz
Temp
52 50 50 50 50 50 51 51 52 51 51 51 52 52 52 52 53 51 51 50 51 50 49 49 49 49 48 49 51 51 51 51 50 49 50 50 48 45 44 45 42 41 41 41 41 41 42 43 43 42 43 44 43 40 41 41 41 40 39 38 38 37
50 50 50 50 49 49 49 50 50 51 51 51 51 51 51 51 51 50 50 50 50 50 49 49 49 49 49 50 51 51 50 50 50 49 49 48 45 44 43 43 42 41 40 40 39 40 40 40 40 40 41 41 40 41 40 39 41 40 39 37 37 37
50 49 48 47 48 48 47 49 50 50 50 50 50 51 50 51 51 50 50 49 49 48 48 48 47 48 48 48 50 51 50 49 48 48 47 44 43 43 42 41 41 41 40 40 39 39 39 39 39 40 41 41 40 37 38 40 40 39 37 37 36 37
48 48 48 47 45 46 46 47 48 49 49 50 50 50 50 50 51 50 49 49 49 47 47 47 45 46 45 45 45 47 47 46 46 46 43 43 42 43 42 41 40 40 39 39 39 39 39 39 39 40 41 41 40 39 40 39 38 39 38 36 37 37
48 45 45 45 45 45 45 46 48 49 49 49 49 49 49 50 50 50 49 48 48 47 46 45 44 43 42 42 42 43 43 44 45 43 43 42 41 41 42 41 40 40 39 39 39 39 39 39 40 40 41 41 41 40 39 40 39 38 37 38 39 38
47 46 45 44 44 44 46 47 47 48 48 48 48 48 48 48 49 49 48 47 47 46 43 43 43 41 41 41 41 41 41 42 42 42 43 42 41 40 40 40 40 39 39 39 39 39 39 39 39 39 40 40 41 40 40 39 38 38 39 38 38 38
45 44 44 43 43 43 44 45 46 46 47 47 48 48 48 48 48 48 48 46 44 42 43 42 41 41 40 41 40 40 41 41 42 41 42 41 40 40 39 39 39 39 39 39 39 39 39 40 39 39 39 39 40 40 40 40 39 38 38 38 39 38
46 44 45 46 45 45 45 45 45 45 46 47 47 47 47 48 47 48 47 46 44 43 42 42 41 41 41 41 40 40 39 40 39 39 39 41 40 39 39 39 39 39 39 39 39 39 39 39 39 40 40 40 39 39 39 38 38 38 39 39 39 39
48 49 47 47 46 46 46 45 45 45 45 46 46 47 47 47 46 46 46 44 43 42 42 41 41 41 41 40 40 39 39 38 37 37 38 39 40 39 38 38 38 38 39 39 39 39 39 39 39 39 40 39 39 39 39 38 38 38 39 39 39 38
48 48 49 48 49 48 47 47 47 46 46 46 45 45 46 47 45 44 43 42 42 43 42 41 40 40 40 40 39 39 38 38 37 37 37 37 38 38 38 38 38 37 38 38 38 38 39 39 39 39 40 40 40 39 38 38 38 38 38 37 37 36
54 51 50 50 49 48 48 47 46 45 45 45 45 44 45 44 43 43 43 42 42 43 42 40 41 40 40 39 39 38 38 37 37 37 37 37 38 38 38 38 37 37 37 37 37 37 37 37 38 39 40 39 39 39 39 38 38 38 37 36 35 35
59 55 53 50 49 49 47 46 45 46 45 45 44 44 44 42 43 43 42 42 43 42 41 40 40 40 39 39 39 38 37 37 37 37 37 37 38 38 38 37 37 37 37 37 37 38 37 38 38 37 40 40 39 38 38 38 38 38 37 35 34 33
59 58 56 54 51 50 50 49 48 46 45 44 44 44 44 43 43 42 42 43 42 41 40 40 40 39 38 38 38 37 37 36 36 36 37 36 36 36 36 37 37 37 37 37 37 37 38 38 38 38 41 41 41 38 38 38 37 37 36 35 34 32
58 58 58 58 56 52 51 49 48 45 45 45 44 44 42 42 43 42 42 42 40 40 40 40 39 38 38 37 37 36 35 35 34 34 34 34 34 34 35 35 36 36 37 37 37 37 38 38 38 41 41 41 41 40 38 37 35 34 35 35 34 32
58 59 58 57 57 55 52 52 48 46 46 45 44 42 42 43 42 42 41 40 40 40 40 39 38 38 37 37 36 35 34 34 33 34 34 34 34 33 33 35 35 35 35 36 36 36 36 36 39 41 41 41 42 41 38 35 36 34 34 34 33 32
58 58 57 57 56 55 53 49 50 49 47 45 40 41 42 42 41 41 41 40 39 39 39 38 37 37 37 36 35 34 33 33 33 34 35 35 34 34 34 34 34 34 35 35 35 35 35 35 38 40 40 40 40 40 38 34 34 34 34 34 33 33
58 56 53 55 55 48 45 43 45 42 41 41 41 41 41 40 40 40 39 39 38 38 38 38 37 37 35 35 34 34 33 33 32 33 34 34 34 34 33 33 33 33 33 33 34 33 33 33 38 39 39 39 40 39 37 33 33 33 32 33 33 32
57 55 53 47 48 45 42 42 39 40 40 38 40 39 39 39 39 39 38 38 38 38 37 37 37 36 35 34 34 33 32 33 33 33 34 34 34 34 33 33 33 33 32 32 32 32 31 33 38 38 39 39 39 38 34 33 32 31 30 30 32 31
51 48 46 45 46 43 41 38 38 38 36 38 37 37 37 38 38 38 38 38 37 37 37 37 36 35 34 34 33 33 32 32 33 34 34 33 33 33 33 32 32 32 32 32 32 31 30 32 36 38 38 39 39 35 32 31 31 30 29 29 31 31
43 43 45 45 42 40 37 36 37 36 36 37 36 36 36 37 37 37 37 37 37 37 36 36 36 35 34 33 33 32 32 33 34 34 34 33 32 32 32 32 32 32 32 31 31 31 30 31 35 37 38 38 37 34 31 31 30 29 29 28 29 30
39 39 41 42 42 38 36 36 36 37 36 34 34 35 36 36 36 36 36 36 35 36 36 36 35 34 34 33 32 32 31 32 33 33 33 33 33 31 31 32 31 31 31 31 31 31 31 31 34 37 38 38 37 34 31 31 30 28 28 28 28 28
39 40 39 39 39 36 36 35 35 35 34 34 33 34 35 35 34 33 34 34 35 35 35 35 34 34 33 32 31 31 31 32 33 33 33 32 32 31 31 31 30 29 29 29 30 30 31 31 33 35 37 37 36 35 32 31 30 28 28 28 28 27
38 37 36 36 35 35 35 34 35 34 33 33 34 34 34 33 34 34 34 34 34 34 34 34 34 33 32 32 31 31 31 32 33 32 32 31 31 30 30 29 29 28 28 29 29 29 30 32 32 34 37 37 36 36 34 31 30 30 29 29 29 28
36 35 35 34 34 34 34 33 33 32 32 32 34 33 32 34 34 34 33 33 33 33 32 32 32 32 32 31 31 31 30 32 32 32 31 31 30 29 28 28 28 27 27 28 28 28 29 31 33 33 36 36 37 36 35 32 32 32 31 30 30 30
36 35 34 33 34 34 34 32 32 31 31 32 32 31 32 32 33 33 33 32 32 31 31 31 31 31 31 31 31 30 30 31 31 31 30 29 29 28 27 27 27 26 26 26 27 27 28 29 31 33 34 36 36 36 36 36 34 36 33 32 31 31
34 34 33 32 32 33 32 31 31 30 30 30 31 31 32 32 31 32 31 31 30 30 30 30 30 30 30 30 30 30 30 30 30 30 30 29 28 27 26 26 26 26 25 25 25 26 26 27 28 32 33 34 36 36 36 36 36 35 32 32 31 31
34 32 32 32 31 31 31 30 31 30 30 30 30 30 31 31 31 31 30 29 29 29 29 29 29 29 29 29 30 29 30 30 30 29 29 28 28 27 26 26 26 25 25 25 25 25 25 26 27 27 31 34 35 36 36 36 36 36 35 31 30 30
31 31 30 30 30 30 30 30 29 31 29 29 29 28 30 30 30 29 28 28 28 28 28 28 28 28 28 29 30 31 31 30 29 29 28 28 28 28 27 26 26 26 25 25 25 25 24 25 25 26 27 29 32 34 35 35 35 34 33 32 32 32
31 31 30 29 28 28 29 28 28 28 29 29 29 29 29 29 29 29 28 28 28 28 28 28 27 28 28 29 29 30 30 30 30 29 29 28 28 28 27 27 27 26 26 25 25 25 24 24 24 25 25 26 27 28 30 32 31 32 32 30 30 30
31 30 29 29 27 26 26 26 27 28 28 28 29 29 30 29 29 28 28 28 29 29 29 29 29 29 29 29 29 29 30 30 30 29 29 29 28 27 27 26 26 26 26 26 26 24 23 23 23 23 24 25 24 25 26 28 28 28 28 27 26 25
30 30 29 28 25 25 25 25 26 28 28 29 29 30 30 30 30 30 30 30 31 30 31 31 31 31 30 29 29 29 30 30 31 30 29 29 29 28 28 26 26 25 25 26 24 23 21 22 22 24 28 26 28 26 25 25 26 25 25 26 27 23
30 29 28 26 23 23 24 25 27 28 29 30 30 31 31 30 30 30 30 31 31 30 30 31 31 30 29 28 27 27 27 29 31 30 28 27 31 33 33 31 26 26 26 25 24 25 23 23 24 29 31 31 31 30 30 29 29 28 26 29 29 25
28 27 26 24 22 22 24 26 28 30 30 31 32 32 32 31 31 30 30 30 30 31 31 31 30 29 28 27 27 26 26 26 29 32 32 31 31 33 34 34 33 32 30 27 24 28 31 30 31 31 31 31 31 31 31 31 31 31 31 31 26 22
27 27 26 24 24 25 27 28 29 30 30 31 31 32 31 31 31 30 31 31 30 30 30 30 28 27 26 26 26 25 25 25 24 26 31 32 32 33 33 33 32 32 31 31 29 27 28 31 32 32 31 31 31 31 31 31 32 32 32 31 29 23
28 26 23 23 24 25 26 27 27 28 29 30 31 32 31 31 31 31 30 30 30 29 28 28 27 27 26 25 25 25 25 25 24 23 24 28 32 32 32 32 32 32 31 31 31 31 29 29 30 31 31 31 31 31 31 32 32 32 32 31 26 23
27 26 24 24 24 25 25 25 25 27 29 30 31 32 32 31 31 31 30 30 29 29 28 27 27 27 26 27 26 26 25 25 24 24 24 23 24 26 29 31 32 31 31 31 31 31 31 31 31 31 31 31 31 31 31 31 30 31 32 29 22 23
26 24 24 23 23 23 23 24 23 23 24 30 31 31 31 31 30 29 26 25 26 28 27 27 28 27 27 27 26 25 25 24 24 24 24 23 22 22 22 23 26 30 31 29 30 31 31 31 31 31 30 31 31 31 31 30 25 23 19 16 11 13
24 23 23 23 24 24 24 23 21 20 20 27 30 31 30 30 29 28 27 27 26 27 27 27 28 28 27 26 26 26 24 24 24 23 23 23 22 22 21 21 24 26 29 30 30 31 31 31 31 30 30 30 30 29 28 19 15 13 11 10 7 8

ECMWFFLT1_sfc_temp_075.txt.gz
Temp
47 47 47 47 47 47 48 48 48 48 47 48 49 49 49 49 49 48 48 49 50 49 48 48 48 48 48 48 48 48 48 48 48 48 49 49 48 47 46 46 45 44 43 42 42 42 42 43 43 44 45 45 45 44 43 42 42 42 41 40 40 39
46 46 47 47 46 46 46 46 46 47 48 47 47 47 47 47 48 48 48 48 48 48 47 47 48 48 48 48 48 48 48 48 47 47 47 49 48 48 46 45 44 43 43 42 41 40 40 40 40 40 41 41 42 41 41 40 41 41 40 39 38 39
42 42 42 43 42 42 43 45 46 47 46 47 47 48 48 47 48 47 48 47 47 47 46 46 46 45 46 45 47 47 47 47 47 47 47 46 46 45 44 44 43 43 42 42 41 41 40 40 40 39 39 40 40 39 40 39 40 40 38 38 37 36
42 42 42 41 41 41 42 44 44 45 46 47 47 47 48 48 48 48 48 47 48 46 46 45 43 45 44 44 43 44 44 43 45 45 45 42 43 43 43 43 42 42 42 41 40 40 39 39 40 38 38 39 39 38 40 39 39 39 38 37 37 36
43 41 41 42 43 43 41 40 43 45 45 44 45 46 46 47 48 48 47 47 46 45 44 43 42 43 41 42 41 40 40 40 39 42 44 43 42 42 43 43 42 41 41 40 40 40 39 39 38 37 38 38 39 39 38 39 39 39 38 37 37 36
41 43 44 41 40 40 42 44 43 44 44 44 44 44 45 44 45 45 45 45 44 43 41 42 41 40 40 40 40 40 39 39 39 39 42 42 42 41 41 41 41 40 40 40 39 39 39 38 38 38 39 39 39 39 39 38 38 39 39 38 37 36
43 44 43 41 40 40 42 43 44 44 44 43 44 45 44 44 43 43 44 42 42 40 40 40 39 40 39 39 38 39 38 38 38 38 40 40 41 41 40 39 40 40 39 39 39 39 39 39 39 39 38 39 39 39 39 38 38 38 38 38 37 36
43 41 41 41 41 42 42 43 43 44 45 45 44 45 44 44 41 43 43 42 41 41 40 40 38 40 40 39 38 38 37 37 38 38 38 40 41 40 39 40 39 39 39 39 39 39 39 39 39 39 39 39 38 38 38 37 37 37 37 37 36 36
48 50 46 43 43 42 43 43 43 43 44 44 44 45 44 43 43 43 43 42 41 42 40 40 40 40 39 38 38 37 37 37 37 38 38 39 40 39 39 39 39 39 39 39 39 39 39 39 38 38 38 38 38 38 38 37 37 36 36 36 36 36
49 45 46 46 46 44 43 43 44 44 44 44 44 44 43 44 43 43 43 41 41 41 42 41 40 39 39 38 38 38 38 37 37 37 37 36 38 39 39 39 39 39 39 39 38 38 38 38 38 38 38 38 38 38 37 37 36 36 35 34 35 36
48 49 49 49 46 44 44 43 43 42 42 43 43 42 44 43 42 43 44 43 42 43 43 40 38 38 38 37 38 38 37 37 37 36 36 35 36 38 38 38 39 38 37 38 38 38 38 38 38 38 38 38 38 38 37 37 36 36 35 35 35 36
50 50 50 48 47 47 46 45 43 43 44 44 43 42 43 40 42 43 43 43 44 44 42 39 38 38 37 37 38 37 37 36 36 35 35 35 35 36 37 37 37 37 37 37 37 37 37 37 38 37 39 39 37 37 37 37 37 37 36 35 34 34
50 49 48 49 48 49 50 50 48 46 43 43 43 42 42 40 41 42 42 43 44 43 39 39 39 38 38 38 37 37 36 36 35 35 34 34 34 35 36 37 36 36 37 37 36 36 36 37 37 37 40 40 39 37 36 36 35 35 35 34 33 33
48 48 49 51 51 49 48 49 49 45 45 45 43 43 39 39 41 42 42 43 43 41 40 39 38 38 38 37 37 36 36 35 34 34 34 33 33 33 35 36 36 36 36 36 36 36 36 37 37 39 40 40 40 38 37 37 35 35 35 35 34 34
50 49 49 48 49 50 50 48 45 46 47 46 46 39 38 40 40 42 42 42 41 39 38 37 37 37 37 36 36 36 35 35 34 34 33 33 33 33 34 36 36 36 36 36 36 36 36 36 38 39 40 40 40 40 38 36 36 35 35 35 33 33
51 51 47 46 47 48 48 44 46 49 47 45 40 39 40 40 40 40 41 40 39 38 37 37 37 37 37 36 35 35 35 34 34 34 33 33 32 33 34 35 35 35 35 36 36 36 36 36 38 40 40 40 40 40 38 35 34 34 35 34 33 33
47 47 47 47 46 43 41 43 41 42 40 40 40 39 39 39 39 39 39 39 38 36 37 37 37 37 36 35 35 34 34 34 33 32 32 32 32 33 34 34 34 34 34 34 34 35 34 35 38 40 40 40 41 40 38 34 34 34 33 34 34 34
44 44 45 43 40 41 39 42 39 39 41 37 38 37 37 38 38 38 37 38 37 37 37 37 37 36 35 34 34 33 33 32 32 32 31 31 32 34 34 34 34 33 33 33 33 33 32 34 39 40 40 40 40 40 35 33 33 32 32 32 34 34
40 41 39 39 39 39 42 39 35 37 37 36 36 35 35 36 37 38 38 38 37 37 37 36 36 35 35 34 33 33 32 31 31 31 31 31 32 33 33 33 33 33 33 32 32 32 31 33 37 39 39 40 40 37 33 33 32 31 30 31 32 33
39 39 37 38 40 39 37 35 35 36 36 35 34 34 34 35 37 37 36 36 36 36 36 36 36 35 34 33 33 33 32 31 31 31 32 32 32 32 33 33 32 32 32 32 32 32 31 32 35 38 39 39 38 35 32 32 31 30 30 30 31 32
37 37 37 38 39 40 36 34 34 36 37 35 34 33 35 36 36 35 36 36 35 35 35 35 35 35 34 33 33 33 31 31 31 31 32 33 34 33 33 32 32 31 31 32 31 32 32 32 34 38 38 38 37 34 32 32 31 29 29 29 29 30
34 38 39 38 39 35 33 32 34 34 36 36 32 33 35 36 36 35 33 33 33 34 34 34 34 34 33 33 32 31 31 30 30 30 31 32 33 32 32 32 31 30 30 30 30 31 32 32 33 35 38 37 37 35 32 32 31 29 28 29 29 28
34 36 37 37 35 32 31 32 34 35 35 33 32 35 36 34 32 32 32 32 32 32 32 32 34 33 32 32 31 30 30 30 31 31 32 32 32 31 30 30 30 29 29 29 30 30 31 32 33 34 37 37 36 36 34 31 31 30 29 29 29 29
37 36 36 34 31 31 31 31 34 35 34 33 34 36 33 30 31 30 30 30 31 31 31 31 29 32 31 30 30 29 29 29 31 32 32 32 31 30 29 29 28 28 27 28 28 29 30 32 33 33 36 36 36 36 35 32 31 31 30 29 29 29
39 38 37 35 30 30 30 30 32 34 32 33 35 33 29 29 30 30 29 28 29 28 29 29 29 30 30 29 30 29 29 30 31 31 31 30 30 29 28 27 27 27 27 27 28 29 30 31 32 34 34 36 36 37 36 34 32 34 32 31 29 30
39 39 37 35 32 29 29 30 33 33 32 34 32 28 29 29 28 28 27 27 26 27 27 27 27 28 29 29 29 29 29 30 31 30 30 30 29 28 27 27 26 26 26 26 26 27 28 30 31 33 34 34 36 36 36 35 35 35 33 33 32 31
37 37 37 36 33 31 29 28 31 31 31 31 28 27 27 27 26 27 26 25 25 25 25 26 27 27 27 28 29 29 30 30 30 29 30 29 29 28 27 26 27 26 26 25 25 25 27 28 30 32 33 34 35 36 36 35 35 35 35 33 31 31
34 34 35 36 34 31 29 29 29 31 33 28 28 26 27 27 26 26 25 24 25 25 26 26 24 25 26 28 30 31 31 30 30 29 29 29 28 28 27 26 26 26 26 25 25 25 26 27 29 30 32 33 33 34 35 35 35 34 34 32 31 32
35 35 35 35 36 29 29 27 29 30 29 27 27 26 26 26 26 26 24 25 25 24 25 26 25 25 25 27 29 30 31 31 30 30 29 29 28 28 27 27 26 26 26 25 25 25 25 26 27 28 30 31 32 32 33 33 33 33 32 31 32 33
34 35 34 34 36 30 29 27 28 28 27 25 25 25 26 27 27 26 25 24 25 25 26 26 27 26 25 26 28 29 30 30 30 30 29 29 29 27 27 27 26 26 26 25 25 24 24 25 25 27 29 30 30 30 31 31 30 30 29 28 28 28
34 34 33 33 33 29 27 26 26 24 25 25 24 26 27 27 27 26 25 25 25 26 27 27 27 27 27 27 28 29 31 30 30 30 30 30 31 30 29 28 28 28 28 27 25 24 23 24 25 26 30 29 32 30 30 29 29 28 27 28 29 25
31 32 32 32 31 27 26 25 25 24 24 25 26 27 28 28 27 26 26 27 27 26 27 27 29 29 29 29 29 28 28 30 32 31 30 29 31 31 32 31 29 29 28 26 26 26 25 25 26 30 31 32 32 32 32 32 31 30 28 30 30 27
31 30 29 31 30 26 25 25 25 24 24 25 27 28 28 28 27 27 27 28 27 28 28 28 29 29 29 29 28 28 27 27 29 32 32 31 31 31 32 32 32 31 30 27 24 27 30 30 31 31 32 32 33 33 32 32 32 31 31 31 27 24
32 30 30 31 28 26 24 24 24 25 25 26 27 27 28 28 28 27 27 28 29 30 29 29 28 28 28 27 27 27 27 27 26 27 31 32 32 32 32 32 32 32 31 30 29 27 27 30 31 32 32 32 33 33 33 33 33 33 33 31 29 22
32 31 30 28 26 25 24 24 25 25 25 26 26 27 27 28 29 29 29 30 30 30 30 29 28 28 27 26 26 26 27 26 26 25 26 30 33 33 33 33 33 32 32 31 31 31 30 30 31 32 32 32 33 33 33 33 34 33 33 31 24 20
30 29 28 26 25 24 24 24 25 24 25 25 27 27 28 29 31 31 31 31 30 30 29 28 28 27 27 27 27 27 26 26 26 26 26 26 26 28 31 32 33 32 32 32 32 31 31 32 32 32 32 32 32 33 33 33 31 33 32 28 21 21
29 28 26 25 24 23 23 25 25 22 22 25 28 29 29 30 31 31 29 27 28 30 29 28 28 28 27 26 26 25 25 25 25 26 26 25 25 24 24 25 28 31 31 30 31 32 32 32 32 32 32 32 32 32 33 33 29 27 27 24 18 18
28 27 24 21 22 22 22 23 22 20 18 22 28 30 30 30 30 30 29 28 28 28 28 27 27 27 26 26 25 24 24 24 24 24 24 24 24 24 23 24 25 26 30 31 31 32 32 32 32 32 32 32 32 32 32 26 25 24 22 20 19 19

ECMWFFLT1_sfc_temp_078.txt.gz
Temp
43 42 44 44 43 43 44 44 44 45 45 46 46 48 48 48 47 46 47 47 49 49 48 48 48 48 47 47 47 46 47 47 46 46 47 46 45 45 45 45 45 45 45 46 46 46 47 47 47 47 47 48 48 48 48 47 46 46 45 45 44 45
41 42 43 44 44 44 44 43 43 45 46 45 46 46 45 44 45 45 46 47 47 47 46 46 47 47 47 46 46 46 46 47 46 46 44 46 45 45 45 45 45 44 43 42 42 43 43 43 44 44 45 44 45 44 43 43 43 43 43 42 41 42
42 41 40 41 40 40 40 42 44 45 44 45 45 46 46 45 46 45 47 45 46 44 45 45 44 45 45 44 45 46 46 46 45 45 45 42 44 43 43 43 44 44 43 43 42 43 42 42 42 41 42 42 42 42 42 42 42 42 42 41 39 39
42 40 39 36 36 40 39 43 42 42 44 45 45 45 45 45 45 46 46 44 45 44 45 43 41 44 43 44 44 44 45 44 44 43 40 41 42 41 42 42 43 43 43 42 42 42 42 42 43 41 41 42 41 41 42 41 41 41 41 40 40 38
41 38 39 40 40 41 39 39 42 44 43 43 42 44 45 45 46 45 44 44 43 43 42 41 42 41 41 42 43 42 42 42 40 39 41 40 38 38 40 42 42 43 43 42 41 41 41 41 41 40 40 41 42 42 41 41 40 41 40 39 39 39
38 37 40 41 39 38 40 41 41 42 42 42 42 43 44 43 44 43 43 42 42 41 40 41 41 39 40 40 41 41 40 39 39 37 39 39 38 38 39 40 42 42 42 42 41 41 41 40 39 39 39 41 41 42 41 40 40 40 41 40 40 38
48 47 45 42 38 38 39 39 40 40 41 40 42 44 44 44 42 42 43 42 42 40 41 40 39 39 40 40 40 40 39 38 37 37 39 38 38 38 38 38 39 41 41 41 41 40 40 40 40 39 39 39 40 41 41 40 40 40 40 40 40 37
47 46 47 45 43 41 40 39 39 40 40 41 41 43 43 43 40 42 43 42 42 42 40 40 39 40 40 40 39 39 38 38 38 38 37 38 39 38 38 39 39 40 40 41 41 41 41 40 40 40 40 40 39 39 39 39 39 39 39 39 39 38
51 51 47 48 46 43 41 41 42 40 40 41 41 42 42 42 41 42 42 42 41 43 41 41 41 41 41 40 40 38 38 38 38 38 38 37 39 39 38 37 38 38 40 41 40 40 40 40 39 39 39 39 39 39 38 38 38 38 38 38 38 37
49 47 49 49 50 48 46 44 41 41 41 42 42 40 40 41 40 41 42 42 42 42 43 42 42 41 41 41 40 39 38 38 37 37 37 36 38 38 38 38 38 38 39 40 40 40 39 39 39 39 39 39 38 38 38 38 37 37 36 36 36 36
50 49 49 49 47 46 47 47 46 41 40 40 41 39 40 40 39 41 42 41 41 43 44 44 41 40 39 38 38 38 38 37 36 36 36 36 37 38 38 38 38 38 38 39 39 38 38 38 38 38 38 38 38 38 38 38 37 37 36 35 35 35
47 46 46 45 45 46 46 47 48 48 45 45 42 40 41 37 39 40 41 41 42 44 44 42 39 38 36 36 37 37 36 36 36 36 36 36 37 37 36 36 36 37 38 38 38 38 37 37 38 37 38 39 38 38 38 37 37 37 36 35 34 34
45 45 44 45 45 45 47 48 48 46 44 43 42 41 40 36 38 39 40 42 43 43 41 40 39 36 37 37 35 35 35 36 36 36 36 36 35 36 35 35 35 36 37 38 38 37 37 37 37 37 39 40 40 38 37 36 36 36 36 35 34 33
44 44 44 45 45 45 45 46 46 44 45 45 43 42 38 36 38 39 40 41 42 41 41 40 38 37 37 36 37 37 36 36 35 36 36 35 35 35 34 34 35 35 36 37 37 37 37 37 37 39 39 40 40 38 37 37 36 35 36 35 35 34
43 43 43 43 44 45 45 43 42 44 46 45 44 39 37 37 37 38 40 40 40 40 39 38 38 38 37 37 37 36 35 35 35 35 35 35 35 33 34 34 34 34 35 36 36 36 37 37 38 39 39 40 40 40 38 36 36 35 35 35 34 33
42 42 40 40 41 41 41 39 39 42 42 41 39 39 39 37 37 37 39 39 39 39 38 37 37 38 38 36 35 35 35 35 35 35 35 34 32 33 33 32 33 33 34 35 36 36 36 36 37 39 39 39 40 40 38 35 35 35 35 34 34 34
40 40 41 42 41 39 38 40 40 39 39 40 40 39 38 36 37 37 37 37 38 37 37 37 37 37 36 35 35 35 35 35 35 34 33 33 33 33 33 33 33 33 33 34 35 36 35 36 37 38 39 40 40 40 39 35 35 35 34 35 35 34
40 39 40 39 37 38 37 38 38 37 40 39 38 38 37 36 36 37 36 37 36 36 36 36 36 36 36 35 34 34 34 34 34 34 32 32 31 32 31 31 32 32 32 33 34 34 34 35 37 38 39 39 40 40 37 34 34 34 33 33 34 34
38 39 36 37 37 37 38 37 36 36 36 38 39 37 36 35 36 37 37 36 37 36 35 35 36 36 35 34 34 34 34 34 33 32 31 31 31 31 31 32 32 33 33 33 33 33 34 33 36 37 38 39 40 38 35 34 33 33 32 31 33 34
38 38 35 36 37 38 36 34 34 34 35 37 37 36 37 36 37 37 36 37 37 35 35 34 35 35 35 34 34 35 34 34 33 32 31 32 31 31 31 31 31 31 33 33 33 33 33 33 34 37 38 39 40 37 34 34 33 31 31 31 32 33
38 36 36 36 38 40 37 34 32 34 36 36 36 35 35 36 37 37 37 37 36 35 34 34 34 35 35 35 35 35 34 32 32 31 30 31 31 31 30 30 30 30 32 33 33 33 33 32 33 37 38 38 39 37 33 33 32 30 30 30 30 32
34 36 37 37 39 38 36 33 34 35 35 36 34 35 36 37 37 37 35 35 35 34 34 34 34 35 35 35 34 33 33 31 29 29 29 29 30 29 29 29 30 31 31 32 32 32 32 32 33 35 38 39 39 37 34 33 31 30 29 29 30 29
35 36 36 37 37 35 34 33 34 36 36 35 35 35 37 37 35 34 34 34 33 33 33 33 33 34 34 33 33 31 29 29 30 29 29 29 28 28 27 28 30 31 31 31 31 31 31 32 32 34 37 38 38 37 35 32 31 31 30 29 29 29
36 36 36 36 35 33 32 31 33 34 35 34 35 36 36 35 34 33 33 33 33 32 32 31 31 31 32 29 28 28 28 25 28 29 29 28 28 28 28 28 29 30 29 29 29 30 30 32 33 33 36 37 37 37 36 32 31 31 30 29 29 29
37 37 37 38 34 33 31 29 32 34 34 34 36 36 34 33 32 32 31 31 31 30 30 29 28 30 27 27 28 29 27 26 27 27 28 28 27 27 28 29 29 28 28 28 29 29 30 31 32 34 34 36 37 37 36 35 32 34 31 30 29 29
36 37 37 37 37 34 31 29 32 33 33 34 37 34 33 32 31 30 29 29 28 27 26 25 24 25 25 26 27 27 27 26 27 27 27 28 27 27 27 29 28 28 27 27 27 28 29 31 32 33 34 34 36 36 36 35 35 35 31 31 30 31
35 35 36 37 36 36 34 30 31 32 32 35 34 33 32 31 29 28 28 28 26 24 22 22 23 22 23 24 27 27 27 26 27 27 26 27 28 28 28 28 28 27 27 27 27 27 28 30 31 32 33 34 35 36 36 36 36 35 35 31 31 32
34 34 34 36 36 36 35 32 28 31 34 35 32 31 30 29 28 28 28 26 23 22 20 22 21 21 21 24 26 28 28 28 28 27 27 27 28 29 28 27 27 27 27 27 27 27 28 29 30 31 32 33 34 35 35 35 35 34 34 33 32 33
34 34 34 34 35 34 34 33 32 31 32 32 31 30 28 26 27 27 27 25 23 20 19 22 22 21 21 21 24 25 27 28 28 28 28 29 29 28 28 28 27 27 27 26 26 27 27 28 29 30 31 31 32 32 32 33 33 33 33 32 32 33
33 33 32 33 34 34 33 32 32 32 31 30 29 27 25 26 27 27 27 25 21 22 21 23 25 24 23 23 25 26 26 26 28 29 30 30 29 29 28 27 27 27 27 26 27 26 27 27 29 30 30 30 31 31 32 32 32 32 31 31 32 32
32 32 32 32 33 32 32 32 32 31 29 29 27 25 25 27 27 27 25 23 21 22 23 23 22 23 23 23 25 25 27 27 28 29 30 31 32 32 31 29 29 29 29 29 28 26 26 27 28 30 32 31 32 31 31 30 31 31 30 31 32 30
31 31 31 32 32 31 31 31 31 30 29 27 25 23 25 26 27 25 25 24 23 23 23 22 23 22 23 23 23 24 24 31 32 31 29 30 32 33 33 33 30 31 30 28 29 29 28 28 30 33 33 33 34 34 33 33 32 32 31 32 32 29
31 30 30 31 32 31 31 30 30 29 27 25 25 24 25 25 26 26 26 25 24 25 24 23 24 23 23 23 24 24 25 25 29 32 32 32 31 32 32 33 32 32 31 29 27 29 31 32 33 34 34 34 34 34 34 33 33 33 33 33 29 26
29 29 30 31 30 30 30 30 30 28 26 25 24 24 25 25 26 27 27 26 25 26 26 24 24 24 24 24 24 26 26 26 26 27 31 32 31 32 32 32 31 31 31 31 29 28 28 32 33 34 34 34 34 34 33 33 34 34 33 32 31 23
29 29 29 29 29 29 29 29 29 28 25 24 23 23 24 25 25 26 26 26 26 26 26 26 25 25 25 24 24 25 26 27 27 26 26 29 32 32 32 32 32 32 31 31 30 30 30 31 33 34 34 34 33 33 33 33 34 34 33 32 27 23
27 27 28 28 27 28 27 27 28 27 26 23 23 23 24 25 26 26 27 26 26 26 25 25 25 26 26 26 25 25 25 27 28 28 27 26 27 28 30 32 32 32 31 31 31 31 31 32 33 33 33 33 33 33 33 33 32 33 33 30 24 22
25 26 26 26 26 26 25 26 27 26 24 23 22 23 24 25 25 26 26 26 26 26 26 25 25 26 28 28 27 26 26 26 26 27 27 27 26 26 26 26 29 31 31 30 30 31 32 32 33 33 33 33 34 34 34 34 31 29 29 27 23 22
23 24 25 25 25 24 23 24 25 24 23 21 21 22 24 25 26 26 27 27 26 27 26 25 26 27 28 27 27 27 27 26 26 26 27 26 26 26 25 25 27 28 30 31 30 31 32 32 33 33 33 33 33 34 34 29 27 27 26 23 22 22

ECMWFFLT1_sfc_temp_084.txt.gz
Temp
42 41 42 41 40 40 39 40 40 40 40 40 39 42 42 41 41 40 41 41 43 44 44 44 44 44 45 45 45 44 45 46 45 45 46 44 43 43 43 43 43 42 43 43 44 44 44 44 45 45 47 48 49 49 49 50 49 49 49 49 49 49
40 40 40 42 42 42 42 40 40 42 42 40 41 41 40 40 40 39 41 41 41 43 42 41 43 44 44 45 44 45 45 46 45 45 43 45 44 44 43 42 42 42 42 42 42 43 43 43 43 43 45 46 47 48 48 48 48 48 48 49 48 48
40 40 38 38 37 37 38 39 40 40 40 41 40 41 42 42 40 39 41 40 41 40 41 42 41 42 42 42 43 44 45 45 44 45 45 40 42 41 42 42 42 42 42 42 41 42 43 43 43 43 44 45 46 46 47 46 45 46 46 44 44 44
43 44 41 38 38 42 41 41 40 42 42 41 40 40 41 41 42 40 41 39 40 40 41 41 38 41 39 41 41 42 43 42 42 41 38 41 43 41 43 43 43 42 41 41 42 41 41 42 43 42 43 44 44 44 45 44 43 42 43 42 43 42
38 37 38 38 38 39 37 38 40 41 41 40 40 39 42 41 41 41 39 39 38 39 38 37 37 37 37 38 39 40 41 41 38 37 40 41 39 36 39 40 39 39 39 40 40 41 41 41 41 41 42 42 42 42 42 43 42 42 42 42 42 42
35 40 43 44 42 41 40 39 39 40 40 39 38 39 40 40 40 39 38 38 38 37 35 36 36 35 35 37 39 38 38 38 37 36 38 39 37 37 36 36 38 38 38 39 40 40 40 41 40 40 40 42 42 41 42 41 41 41 42 42 42 42
38 40 40 40 39 38 38 39 39 38 38 37 37 38 38 38 37 37 38 36 37 38 36 37 35 35 35 36 37 37 37 36 36 35 37 37 37 37 36 36 36 38 38 40 40 41 40 41 41 40 40 40 40 41 41 41 41 41 41 41 41 40
41 39 39 39 38 38 38 38 37 37 36 37 36 37 38 39 36 36 36 36 36 38 37 37 35 35 36 36 36 37 37 36 35 36 36 36 38 37 36 37 36 37 39 40 40 41 41 40 40 40 40 40 39 39 39 39 40 40 40 40 40 40
39 39 39 39 39 38 38 38 37 37 37 39 38 37 36 37 36 37 37 36 35 37 37 37 37 37 36 36 37 36 36 36 35 35 37 35 36 37 37 36 37 36 37 39 40 40 40 40 40 39 39 39 39 39 38 38 38 39 39 40 40 40
39 39 38 38 38 39 39 39 38 38 37 38 38 37 36 37 37 38 37 37 37 37 38 38 36 36 37 36 36 36 36 36 35 36 35 34 36 36 37 37 38 37 36 37 38 39 38 39 39 39 39 38 38 38 37 37 38 38 38 38 39 39
37 38 38 38 38 39 39 39 40 39 39 38 38 37 37 35 36 37 37 36 36 37 37 37 37 36 36 36 36 36 36 36 35 35 35 34 35 36 36 36 37 37 37 37 37 37 37 37 38 38 38 37 37 37 37 37 37 37 38 38 38 38
36 36 37 37 37 37 38 38 38 38 37 38 38 37 37 35 35 36 37 37 37 37 36 36 35 36 35 36 36 37 36 36 35 34 34 35 35 35 35 35 35 36 37 37 37 37 37 38 38 37 39 39 38 37 37 37 36 36 37 37 37 37
36 36 37 37 36 36 37 37 36 36 37 37 37 37 36 34 35 36 36 37 37 36 35 35 36 35 36 36 35 35 36 36 35 34 34 34 34 35 35 34 35 36 36 37 37 38 37 38 38 38 40 41 41 38 36 36 36 36 36 37 37 37
35 35 35 35 36 36 36 36 36 36 37 37 37 36 35 34 35 35 36 35 36 36 36 35 35 35 35 35 36 35 35 34 34 34 34 34 34 34 33 33 35 36 36 37 36 37 37 38 38 40 41 41 42 40 37 36 36 37 37 37 37 37
33 33 34 34 35 35 35 34 34 36 36 36 36 34 35 35 35 35 35 36 35 35 34 35 35 35 35 35 35 34 34 34 34 34 34 35 35 32 33 35 35 35 35 36 36 36 37 37 39 40 41 41 41 42 40 37 37 36 36 37 37 36
34 34 33 33 34 33 34 33 33 35 34 34 34 33 35 35 35 34 35 35 35 35 34 34 35 35 35 35 35 34 34 34 34 34 33 34 33 33 33 33 34 34 34 35 35 36 37 37 37 40 40 40 41 41 41 38 37 36 37 37 37 37
33 34 35 35 34 33 32 33 33 33 33 33 33 34 34 34 34 34 35 35 35 34 35 35 35 34 35 34 34 34 34 34 34 34 34 34 34 34 34 35 34 34 34 34 34 34 35 36 38 39 40 40 41 41 40 37 36 36 35 36 36 36
34 33 34 34 33 33 32 34 34 33 34 33 33 33 34 34 34 35 35 35 35 35 34 34 34 34 34 34 34 34 34 34 34 35 35 34 33 33 32 33 33 34 34 34 33 34 34 35 38 38 39 40 41 41 38 36 36 35 35 35 35 35
32 34 33 33 33 33 34 34 33 33 33 34 34 33 34 34 35 35 35 35 35 34 34 33 33 33 33 33 33 33 34 34 35 34 33 33 34 33 33 34 34 34 33 33 33 33 34 34 36 38 39 39 40 39 36 35 35 35 34 35 35 35
32 32 32 33 33 33 33 32 32 32 32 33 33 33 33 34 34 34 34 34 34 33 33 32 32 32 32 33 33 33 34 34 33 33 33 33 34 34 34 34 33 33 32 32 32 33 33 34 34 36 38 39 40 38 35 35 35 34 34 34 34 34
31 31 31 32 34 34 32 31 31 32 32 32 33 32 32 34 34 34 33 33 33 33 32 32 32 32 32 32 32 33 33 33 34 33 32 32 32 32 32 31 31 32 31 30 31 32 32 32 33 36 37 38 39 38 34 34 34 34 34 33 33 33
32 34 34 34 34 34 33 32 32 32 32 32 32 32 33 33 33 33 33 33 33 32 32 32 31 31 31 31 32 32 32 32 31 32 32 32 30 31 31 29 30 30 31 30 29 30 30 31 31 32 36 38 38 39 35 34 34 34 34 33 32 31
31 31 32 32 33 33 33 32 32 32 32 32 32 32 33 33 33 33 33 32 32 32 32 31 30 30 31 30 30 31 30 30 30 31 30 30 30 29 29 28 28 28 29 29 28 28 28 29 29 30 35 37 38 38 37 34 34 35 34 33 32 31
31 31 32 33 33 33 32 31 30 31 31 31 31 32 32 32 32 32 31 31 31 31 30 31 31 30 30 30 29 29 30 30 29 28 28 28 27 28 28 28 27 27 28 28 26 26 27 28 30 29 32 35 37 38 38 35 34 35 34 33 32 31
30 31 31 32 32 31 31 27 27 29 29 29 31 32 31 31 31 30 30 29 29 29 29 30 30 30 30 29 28 27 27 29 28 28 26 25 26 27 27 27 27 26 27 27 26 25 25 26 28 31 31 33 36 37 38 38 36 37 35 33 31 31
29 29 29 29 29 27 27 25 26 27 27 29 31 31 31 30 30 29 28 28 28 28 29 29 29 28 27 26 26 26 26 28 28 27 26 25 25 26 27 28 26 25 26 27 27 26 24 25 26 29 31 32 34 36 37 38 38 38 34 33 32 31
27 27 27 28 27 27 25 23 24 25 25 28 29 29 29 28 28 27 27 27 27 27 28 29 28 28 27 26 24 25 27 27 27 27 28 22 24 25 25 27 26 26 26 26 27 27 25 25 25 25 29 32 33 35 36 37 38 38 37 33 31 32
21 22 24 25 25 26 24 23 22 25 27 28 28 28 28 27 26 26 26 26 27 27 27 27 28 28 27 27 24 24 25 25 26 26 27 26 25 25 25 26 26 26 26 26 26 26 26 25 25 26 28 31 32 33 34 36 37 36 36 33 32 33
23 22 22 23 24 25 26 24 25 25 26 26 27 27 26 25 24 25 25 25 26 26 26 26 27 27 28 27 25 24 24 24 24 25 25 26 26 26 26 26 26 26 26 26 26 26 26 25 26 28 30 31 32 32 33 34 35 34 34 32 31 32
21 21 21 22 24 24 24 23 23 24 24 25 26 25 25 24 24 24 24 24 25 25 25 26 26 26 26 27 26 25 26 25 24 24 25 27 27 26 27 27 27 27 27 26 27 27 27 27 27 28 29 30 32 32 33 33 33 32 31 30 30 31
19 19 19 19 21 21 20 20 21 22 23 24 24 24 23 23 24 23 23 23 24 24 25 25 25 26 26 26 26 26 25 25 26 26 27 28 27 27 28 28 28 29 27 27 27 28 29 30 30 30 33 32 33 32 32 32 31 31 31 31 32 30
17 16 16 17 18 17 17 17 19 21 22 23 24 23 22 22 22 22 22 23 23 23 24 25 25 25 25 25 25 25 26 28 30 29 27 27 29 31 33 33 29 29 28 28 29 30 30 31 32 35 35 34 34 34 34 34 34 33 31 32 33 32
14 14 13 14 15 14 15 16 18 21 23 24 24 23 22 22 21 21 22 22 22 23 23 23 24 24 25 25 25 25 25 26 28 32 33 33 31 32 33 34 34 35 34 32 30 32 35 34 35 35 35 34 34 34 34 34 34 34 33 33 31 29
11 11 10 11 12 13 15 17 19 22 23 23 22 22 22 21 21 20 20 21 21 22 22 23 23 24 25 25 26 26 26 26 26 28 32 33 33 33 33 34 34 34 34 35 34 32 31 33 34 34 34 34 34 34 34 34 34 33 33 34 33 28
9 9 9 10 11 13 16 18 20 22 20 20 21 22 21 21 20 20 20 20 20 21 22 22 23 24 25 25 26 26 27 26 26 26 27 30 34 34 34 34 34 34 34 34 35 35 34 33 33 33 34 34 34 34 34 34 34 34 34 33 30 28
7 7 8 9 12 15 17 18 17 16 17 20 21 21 20 20 20 19 19 19 19 20 21 22 23 24 25 26 26 27 27 27 27 27 27 27 28 30 32 34 34 33 33 34 34 34 34 34 34 33 33 33 33 34 34 33 32 34 34 32 29 28
5 6 9 12 15 16 14 12 13 16 18 20 20 20 19 19 18 18 18 19 19 19 20 21 23 24 25 26 26 27 27 27 28 28 27 27 26 27 27 29 30 32 33 32 32 33 34 33 33 33 33 33 34 34 34 34 31 29 30 30 29 28
6 7 11 13 11 8 8 9 13 16 17 18 19 18 17 16 16 16 16 16 17 18 19 20 21 22 23 24 25 26 27 28 28 28 28 28 28 28 27 28 30 30 31 33 32 33 33 33 33 33 33 33 34 34 34 29 28 28 28 28 28 27

ECMWFFLT1_sfc_temp_087.txt.gz
Temp
44 44 45 44 43 43 42 42 42 43 43 42 42 44 43 43 42 42 42 42 44 45 45 45 46 46 47 47 48 47 48 49 49 49 49 49 49 48 48 48 48 48 48 48 49 49 50 50 51 50 51 51 51 52 52 52 51 51 51 52 51 51
42 42 42 44 43 43 43 43 44 44 43 43 43 43 43 43 43 42 44 43 43 44 43 43 44 44 45 46 46 47 47 48 48 48 47 49 48 48 47 47 47 47 46 47 47 47 47 47 48 48 49 49 49 50 50 50 50 50 50 50 51 51
42 41 41 41 41 42 43 42 42 43 43 43 42 42 44 43 43 42 43 42 42 42 43 43 43 43 43 44 44 45 46 47 46 47 47 44 46 45 45 46 46 46 46 46 46 46 46 46 46 47 46 47 47 48 48 48 48 48 49 48 48 49
42 43 42 42 43 43 42 42 43 43 43 42 42 42 43 42 43 42 42 41 41 41 41 42 41 41 41 41 42 42 43 44 44 44 42 43 45 44 45 45 45 45 45 45 45 45 45 45 46 45 45 45 46 46 47 47 47 46 46 46 46 45
40 41 40 40 39 40 39 41 41 41 42 41 41 41 42 41 42 41 40 41 40 40 39 38 39 39 39 39 41 41 42 42 42 41 42 43 44 41 43 44 44 44 43 43 43 44 44 44 44 44 44 44 45 45 45 46 46 45 44 44 44 44
40 41 42 41 40 40 40 40 40 41 41 40 40 41 40 41 41 39 40 39 39 39 38 39 38 37 37 38 39 39 40 40 40 39 40 41 41 41 41 40 41 41 41 41 41 42 42 42 42 42 42 44 44 44 44 44 44 44 44 44 44 44
41 40 39 39 38 39 39 39 39 39 39 39 39 39 39 39 38 38 39 38 38 39 39 40 39 38 39 39 38 38 38 38 38 38 39 39 39 40 40 40 39 39 40 41 41 42 42 41 42 42 42 42 43 43 43 43 43 43 43 43 43 41
38 39 39 39 38 38 38 39 38 38 38 39 38 38 38 39 37 38 38 38 38 39 39 39 39 39 39 39 39 39 38 38 38 39 38 38 39 39 39 39 39 39 39 40 40 41 41 41 41 41 42 42 41 41 41 41 42 42 42 42 42 42
39 38 38 37 38 37 38 38 38 38 38 38 38 37 37 37 37 38 38 38 38 39 39 39 39 38 38 38 38 38 38 38 38 38 39 38 38 38 39 39 39 39 39 39 39 40 40 41 41 41 41 41 41 41 41 40 40 41 41 42 41 41
36 35 35 36 37 37 37 38 38 38 38 38 37 37 37 37 36 37 38 38 38 39 38 38 38 38 38 38 38 38 38 38 38 38 38 37 37 37 38 39 39 39 39 39 39 39 39 39 40 40 40 41 41 40 40 40 40 40 40 40 40 40
35 36 36 36 36 37 37 37 37 37 37 38 37 37 36 36 36 37 37 38 38 38 38 38 38 38 38 38 39 39 38 38 38 38 37 37 37 37 37 38 38 38 38 39 38 38 39 39 39 40 40 40 40 40 40 40 40 39 39 40 40 40
35 35 36 36 36 36 36 36 36 36 36 37 37 36 37 35 36 36 37 37 37 37 38 37 37 38 37 38 38 38 38 38 37 37 37 37 37 37 37 37 37 37 37 37 38 38 38 39 40 38 38 39 40 40 40 40 39 39 39 39 39 39
35 36 36 36 35 35 35 36 35 36 36 36 36 36 35 35 35 36 36 37 37 37 37 37 37 36 37 37 37 37 37 37 37 36 37 37 37 37 37 36 37 37 37 37 37 37 38 39 39 38 40 41 41 40 39 39 39 38 38 38 38 38
36 36 35 35 35 35 35 35 35 36 37 36 36 35 34 34 35 35 36 36 36 36 36 35 36 36 36 35 36 36 36 35 35 36 36 36 36 37 36 36 37 37 37 37 37 37 37 38 38 40 40 41 41 40 40 39 39 39 39 38 38 39
35 35 35 35 35 35 35 34 34 36 35 35 35 34 34 35 34 35 36 36 36 36 35 35 35 35 35 35 35 35 35 34 34 35 35 35 36 35 35 36 36 36 36 36 36 36 37 37 38 39 40 40 41 41 40 40 39 39 39 38 38 38
35 35 34 34 34 34 33 33 33 35 34 34 33 33 35 34 35 35 35 35 35 35 35 35 35 35 35 34 34 34 34 34 35 35 35 35 35 35 35 35 35 36 36 36 36 36 37 37 37 39 39 40 40 40 40 40 40 39 39 39 39 39
34 34 34 35 34 33 33 34 34 33 33 33 33 34 34 34 34 35 35 35 35 34 35 34 34 34 34 34 34 34 34 34 34 35 35 35 35 35 35 35 35 36 35 36 36 36 36 37 38 39 39 40 40 41 40 40 39 38 38 39 39 39
35 35 35 33 33 33 33 34 33 33 33 33 33 33 33 33 34 34 34 34 34 34 34 33 33 33 33 34 33 33 33 34 34 34 35 34 35 35 34 35 34 34 35 35 35 35 35 37 38 38 39 39 40 41 39 38 37 37 37 37 38 38
34 34 33 32 33 33 34 33 32 32 32 33 33 33 33 33 34 34 33 33 33 33 33 33 32 32 32 32 32 32 33 33 33 34 34 33 34 34 34 34 35 35 34 34 34 34 34 36 37 37 38 39 40 39 38 37 37 37 37 38 38 38
33 33 32 33 33 33 32 32 31 31 32 32 32 32 32 33 33 33 32 33 33 33 32 32 32 31 31 31 31 31 32 32 33 33 33 32 32 33 34 34 34 34 34 33 33 33 33 34 35 37 38 38 39 38 36 37 37 36 36 36 37 38
32 32 32 32 32 32 32 31 31 31 32 32 32 32 32 32 32 32 32 32 32 32 31 31 30 30 30 30 30 30 30 31 31 31 31 31 31 32 33 33 32 33 33 32 32 32 32 33 34 35 37 38 38 38 36 36 36 35 35 36 36 37
32 32 32 32 32 31 31 31 31 31 31 31 31 31 32 32 31 32 32 32 31 31 30 30 29 29 29 29 29 30 30 30 30 30 30 31 31 31 32 31 31 30 32 32 31 31 32 31 32 33 35 36 37 38 37 37 35 34 35 35 36 36
31 31 31 31 31 31 31 30 30 30 30 30 30 30 31 31 31 31 31 31 30 30 29 29 29 28 28 28 29 29 29 29 29 29 29 29 30 30 30 30 30 30 30 31 30 30 29 30 30 31 34 35 36 38 37 36 35 35 35 35 36 36
31 31 31 30 30 30 30 28 28 29 29 28 28 30 30 30 30 30 29 29 28 28 28 28 28 28 28 28 28 27 28 28 28 28 28 29 28 27 28 29 29 30 30 31 31 29 29 29 29 30 32 33 35 36 36 36 35 35 35 35 35 35
29 29 29 29 29 29 28 25 25 26 26 26 28 29 29 29 29 28 28 27 26 26 26 27 27 27 28 27 27 26 26 28 27 27 27 26 27 27 27 28 29 29 30 31 33 31 29 28 29 30 30 32 33 35 36 36 36 37 36 35 34 35
28 28 28 28 27 26 25 24 23 24 24 25 28 27 27 26 26 26 25 25 25 25 26 26 26 26 26 26 26 26 25 26 27 27 28 27 27 27 27 29 29 29 29 30 31 32 32 29 29 29 30 30 32 34 35 36 37 37 35 35 35 36
24 25 24 25 24 24 23 22 21 21 21 24 25 24 24 24 24 23 23 24 24 24 25 25 25 25 26 26 25 25 27 26 26 27 28 26 26 27 27 28 29 28 29 29 29 31 32 31 29 28 29 30 31 33 34 35 36 36 37 35 36 36
20 19 20 22 22 21 20 20 19 17 20 22 22 23 23 23 22 22 22 23 23 23 23 23 24 25 25 26 26 25 26 25 25 26 26 27 27 27 27 27 28 28 28 29 29 30 31 31 30 28 28 29 30 31 32 34 34 34 35 35 35 35
18 17 17 17 19 18 18 16 17 18 19 19 21 23 24 24 23 22 22 22 22 23 23 22 23 24 25 25 26 26 26 26 25 25 25 26 26 26 27 28 28 28 29 29 30 30 31 30 31 29 28 29 29 31 32 32 33 33 33 34 34 35
14 14 14 15 17 16 15 14 14 16 18 20 22 23 24 22 21 20 20 21 22 23 23 23 23 23 23 24 24 24 25 26 26 25 25 26 26 26 27 28 28 28 29 29 29 30 30 30 31 31 29 30 30 31 32 32 33 34 34 34 34 34
12 12 12 12 14 13 12 12 14 16 19 21 23 23 21 20 20 20 20 21 22 22 23 22 22 22 22 23 23 24 25 25 26 27 27 28 28 27 27 27 27 28 29 29 28 28 28 29 30 31 34 32 33 32 32 32 33 34 34 34 35 32
9 9 9 11 12 10 10 12 14 17 20 22 21 18 17 18 19 19 19 20 21 20 21 21 21 21 22 22 22 23 24 27 30 29 28 28 30 32 32 32 30 30 31 30 30 31 29 29 31 34 35 35 35 36 35 35 35 35 35 34 35 33
8 7 7 8 9 9 10 13 16 18 20 18 16 16 17 19 18 18 19 19 19 19 19 20 19 20 20 21 22 22 23 24 27 30 31 31 31 32 32 33 33 34 34 33 31 33 34 34 34 35 35 35 35 35 35 35 35 35 35 35 33 31
6 6 5 7 7 8 11 13 16 17 14 13 14 17 18 19 18 17 18 18 18 18 19 19 18 19 19 20 21 22 22 22 22 24 29 31 32 32 33 33 34 34 34 35 34 33 33 34 35 35 35 35 35 35 35 35 35 36 36 35 35 29
5 5 5 6 7 10 13 14 12 11 11 13 15 16 16 16 17 17 17 17 17 17 17 17 17 18 18 18 18 19 20 20 21 21 23 27 31 32 32 33 33 34 34 34 35 35 34 34 35 35 35 35 35 35 34 35 35 35 36 36 32 29
4 4 5 6 9 11 9 7 7 8 10 13 13 13 14 16 16 15 15 15 15 15 15 16 16 16 17 18 19 19 20 20 21 21 22 23 24 27 30 33 34 33 34 34 35 35 34 34 34 34 34 34 34 34 34 34 34 35 36 34 31 30
2 2 5 9 8 6 4 4 6 8 10 10 11 12 13 13 13 13 13 15 15 14 14 14 15 16 16 17 18 19 19 20 21 22 22 23 23 23 24 26 29 32 33 33 33 34 35 35 35 34 34 34 34 34 35 34 32 30 31 32 32 30
2 2 4 5 3 2 2 3 6 8 8 8 11 12 10 9 9 9 10 10 11 11 11 12 13 14 15 16 17 18 20 21 21 21 22 23 24 24 25 26 28 30 31 32 33 33 34 34 34 34 34 34 34 34 34 30 29 29 29 30 30 30

ECMWFFLT1_sfc_temp_093.txt.gz
Temp
58 58 58 57 57 57 57 57 58 58 58 59 59 58 58 58 58 59 58 58 57 57 58 58 58 59 59 59 59 59 59 59 59 59 60 60 60 60 60 60 59 59 58 58 58 58 58 58 57 57 58 57 56 56 56 57 57 55 54 55 55 55
57 58 57 57 57 57 57 57 57 57 58 58 58 58 58 58 57 58 58 57 58 57 59 58 58 58 58 58 58 58 58 58 58 58 58 58 59 59 58 57 57 57 57 57 57 57 57 57 57 56 55 54 53 53 53 54 54 53 52 53 54 54
57 57 57 56 56 57 57 57 57 57 57 57 58 57 57 56 56 57 56 57 57 57 57 57 57 57 58 58 57 58 57 57 57 57 56 56 56 56 56 56 56 56 56 56 56 55 55 56 56 56 55 54 53 53 52 52 52 51 51 51 51 52
57 56 56 57 57 57 57 57 57 56 56 56 56 56 55 55 55 55 56 56 56 55 56 56 56 56 56 57 56 55 55 55 55 55 55 55 56 56 55 55 55 55 55 54 54 54 54 54 55 55 54 53 52 51 51 51 50 50 49 49 49 50
57 57 57 56 56 56 56 56 56 55 55 55 55 54 54 54 55 55 56 56 55 55 55 55 54 55 55 54 54 53 53 53 54 54 53 54 54 55 54 54 53 53 53 52 52 52 52 51 51 51 51 50 50 49 49 49 49 48 47 47 48 48
56 57 56 56 55 55 55 55 55 55 54 54 54 53 53 53 54 55 55 55 54 54 54 54 53 53 53 53 52 51 52 52 52 52 52 52 53 53 53 53 52 52 51 51 51 51 50 49 49 49 48 48 48 47 46 47 47 47 47 46 46 46
56 56 55 55 54 55 55 54 54 54 53 52 53 52 53 53 54 54 54 55 54 54 53 53 53 52 51 51 52 50 51 50 51 51 51 51 51 51 51 51 51 51 51 50 50 50 50 49 49 48 47 47 47 46 45 45 45 45 45 45 45 42
55 54 54 54 54 54 53 53 53 53 52 51 51 52 52 52 53 53 53 53 53 52 52 52 51 51 51 51 51 50 50 50 50 50 50 50 49 49 49 50 49 50 49 50 50 50 49 49 48 47 46 46 46 46 45 44 44 44 44 44 44 44
54 53 53 53 52 52 52 52 52 52 51 50 50 50 50 51 52 52 52 52 52 51 50 50 50 50 50 50 50 50 50 49 49 48 48 48 48 48 48 48 48 48 48 48 49 48 48 48 48 48 47 46 46 46 44 43 43 42 42 42 42 42
53 52 52 52 51 51 51 51 51 51 50 49 50 50 49 49 51 51 51 51 49 49 48 49 49 49 48 48 49 48 48 48 47 47 47 47 47 47 47 47 46 46 47 48 48 48 48 47 46 46 46 46 46 45 43 42 41 40 41 41 41 41
52 51 51 51 51 51 51 51 51 51 50 49 49 49 48 49 49 50 49 48 47 47 47 48 47 48 48 47 47 46 45 45 45 45 45 46 46 46 46 46 46 46 46 47 47 47 47 46 45 46 45 45 44 44 42 42 41 40 40 40 41 41
52 51 50 50 51 50 50 50 50 49 49 48 48 48 47 48 48 48 48 47 46 46 47 47 46 46 46 45 44 44 43 44 43 43 44 44 44 44 45 45 45 46 46 46 46 46 46 46 47 43 40 40 42 42 41 41 40 40 40 40 39 40
51 50 49 49 49 49 49 49 49 49 48 47 47 46 47 47 47 47 46 46 46 46 46 45 45 45 44 44 43 42 41 42 42 42 42 42 43 43 44 44 44 45 45 45 45 45 45 46 46 42 43 42 42 41 41 40 40 40 40 40 39 39
49 49 48 48 48 48 48 47 47 47 46 46 45 45 45 45 45 46 45 45 45 44 44 43 43 43 43 42 41 41 41 41 41 40 41 41 41 42 43 42 43 44 44 45 45 44 45 45 42 43 43 42 42 41 40 40 40 40 40 40 40 40
49 49 48 47 47 46 46 46 46 45 45 44 44 44 44 44 44 45 44 44 43 43 43 42 42 42 42 41 40 41 40 38 39 38 38 38 41 41 42 42 42 42 43 43 43 43 44 44 43 43 42 42 41 41 40 40 41 41 40 41 41 41
49 48 47 46 46 45 45 45 45 44 44 44 44 44 44 44 44 44 43 43 42 42 42 42 41 40 41 40 39 39 39 37 38 38 39 38 39 40 39 40 40 41 42 42 41 41 42 43 42 42 42 41 41 41 40 40 40 40 40 41 41 41
47 46 45 45 45 45 44 44 44 44 43 44 43 44 43 44 43 42 42 42 42 41 40 40 40 39 39 39 38 36 36 37 36 36 37 38 38 37 37 39 38 39 37 40 40 40 40 41 41 41 41 41 41 41 40 40 40 40 40 41 41 41
46 46 45 45 44 44 44 43 44 43 43 43 43 43 42 42 41 41 40 40 40 39 40 39 38 38 38 37 36 35 35 35 35 35 37 37 38 37 38 38 37 37 36 37 37 38 39 41 41 41 40 40 40 40 38 38 39 39 40 40 41 41
46 45 44 43 43 42 42 42 43 43 42 41 41 41 41 41 40 40 39 39 39 38 38 38 37 35 35 35 34 33 34 34 34 35 36 35 36 36 36 36 36 37 37 36 36 36 38 39 39 40 39 39 40 39 37 36 37 37 38 39 40 41
44 44 43 41 41 41 41 42 42 42 41 40 40 41 39 39 38 38 38 38 38 37 37 36 35 33 32 32 31 32 32 33 34 35 36 35 34 34 35 36 36 37 37 36 35 36 36 36 37 38 39 39 39 38 36 36 36 36 37 38 39 40
42 42 42 41 39 39 40 40 41 40 39 39 39 39 37 36 36 36 36 36 37 36 35 34 33 31 31 30 30 30 30 31 32 34 34 34 34 34 36 36 36 36 36 36 35 35 35 36 37 39 39 40 39 38 36 36 36 35 36 37 38 40
40 40 39 38 37 38 38 39 38 36 38 38 37 35 34 34 34 35 35 35 35 33 32 31 30 29 29 28 29 29 30 32 32 32 32 32 33 35 36 36 35 33 34 36 36 36 37 37 37 38 39 40 40 39 37 36 35 35 35 36 36 36
40 38 36 36 36 36 36 37 37 36 36 35 33 31 31 32 33 33 32 33 32 31 30 29 29 27 27 28 28 29 30 30 30 30 31 31 33 33 33 32 32 34 35 37 36 36 36 37 36 37 39 40 40 40 38 36 35 35 35 35 35 35
36 35 34 33 32 32 32 33 33 34 34 31 28 29 30 30 30 30 30 29 28 27 27 26 26 27 27 27 28 27 27 29 29 30 30 31 32 30 30 31 33 35 36 37 37 37 37 38 37 38 39 40 40 40 40 37 36 36 35 34 34 35
34 33 32 31 30 29 28 28 28 29 29 26 26 27 28 28 28 28 27 26 25 25 24 25 25 25 26 26 27 26 26 28 28 28 29 30 30 30 30 31 33 33 34 35 38 38 38 38 39 39 38 39 40 40 40 39 37 37 36 34 33 33
33 31 30 28 28 26 24 24 24 25 25 23 26 26 27 27 25 25 24 24 24 23 24 24 25 25 26 26 26 26 26 27 27 28 29 30 30 31 31 32 32 33 33 33 35 36 38 38 40 39 38 38 39 40 40 40 39 39 35 35 34 35
31 29 27 26 25 24 22 22 21 22 21 23 25 25 24 22 21 22 22 22 23 23 23 24 24 25 26 25 26 25 26 26 26 26 28 29 29 30 30 31 32 32 32 33 32 34 36 37 37 38 38 37 37 39 39 39 39 39 38 35 34 35
28 26 24 23 22 21 21 20 20 19 21 24 23 22 21 20 19 20 21 22 22 22 23 23 24 25 24 24 26 25 26 25 26 26 27 28 28 29 29 30 30 30 30 30 32 32 33 34 35 35 36 37 37 37 38 38 37 36 35 34 34 34
24 24 23 21 20 19 19 19 20 21 22 21 20 19 19 18 20 20 21 20 21 22 23 22 23 24 24 24 25 25 25 26 26 25 25 26 27 27 27 27 28 28 28 29 29 30 31 31 33 33 35 36 36 37 37 36 36 35 35 35 35 35
22 21 21 19 19 18 18 19 20 19 18 18 18 17 17 18 19 19 19 20 21 22 23 22 23 22 22 23 22 23 23 24 25 24 24 24 24 24 24 25 25 26 27 27 27 28 28 29 30 32 32 33 34 35 35 34 34 34 34 34 34 34
18 18 18 18 17 16 17 18 19 17 16 16 16 16 15 16 17 18 19 20 21 21 23 21 20 20 21 20 21 22 23 22 22 23 23 24 26 26 25 24 25 26 26 27 26 26 25 27 27 29 33 32 33 32 31 31 32 33 33 34 35 34
16 16 16 16 16 15 16 17 16 15 15 14 15 15 13 14 15 17 18 20 20 20 19 18 19 19 20 20 19 20 21 25 26 25 23 23 26 28 29 29 26 26 27 26 27 28 26 25 28 32 32 32 32 33 33 33 34 34 34 34 35 34
13 13 14 15 14 15 16 14 14 13 13 13 13 13 12 13 15 17 18 18 17 17 16 17 18 18 18 18 19 19 19 19 21 25 26 26 26 27 28 28 29 29 29 28 26 27 31 31 31 31 32 32 32 33 33 33 34 34 34 35 33 31
12 12 12 13 12 13 13 11 12 11 11 12 11 12 12 13 14 14 14 15 14 15 16 16 16 16 17 17 18 17 17 17 16 17 23 25 25 25 26 26 26 27 28 29 28 27 27 29 31 31 31 31 32 32 32 33 33 33 33 34 34 30
14 13 12 12 12 11 10 9 10 10 9 10 10 12 11 10 10 9 10 11 13 14 14 15 15 15 15 15 14 14 15 14 14 13 13 17 22 23 24 24 26 27 27 27 28 28 28 28 29 30 30 30 30 31 31 32 33 33 34 34 31 30
13 12 11 11 9 8 9 7 8 8 8 9 9 9 7 6 6 6 9 10 10 10 12 13 13 13 13 13 13 13 12 13 13 12 12 12 13 16 20 23 24 25 25 26 27 27 27 27 27 28 29 29 30 30 31 31 31 33 34 32 29 30
10 10 10 9 7 7 6 5 6 8 8 8 6 5 4 4 5 6 8 9 10 10 10 11 11 11 10 10 10 11 11 11 12 12 12 12 11 11 12 14 17 21 24 22 23 24 25 26 27 27 28 28 29 30 31 31 28 26 27 29 30 31
8 8 8 6 6 5 4 4 7 7 6 5 3 3 3 4 5 5 7 8 9 9 9 9 9 9 9 9 9 10 10 11 11 11 11 12 12 12 12 13 15 16 19 20 21 23 24 24 25 26 27 28 29 29 30 24 23 24 25 27 29 30

ECMWFFLT1_sfc_temp_096.txt.gz
Temp
47 47 47 47 48 48 48 48 49 49 49 49 48 48 48 48 49 48 49 49 50 50 49 48 49 49 49 48 48 48 49 49 49 49 49 49 49 49 49 48 47 47 46 46 45 46 47 46 49 50 51 51 50 50 50 51 52 51 50 51 51 52
46 46 46 46 47 47 47 48 48 49 49 49 48 48 48 48 48 48 48 48 48 49 48 48 48 48 48 48 48 49 48 48 48 48 47 47 47 46 45 44 43 44 44 44 44 44 43 45 45 46 46 47 47 49 49 49 49 48 48 49 49 50
46 47 47 47 47 47 48 48 48 48 48 48 48 47 47 47 47 47 47 47 48 47 47 47 47 47 48 48 47 47 47 47 46 46 45 43 44 43 43 42 42 42 42 42 44 43 43 44 44 45 45 44 44 45 46 47 47 47 46 47 47 47
46 45 46 44 46 47 47 48 48 47 47 47 47 47 46 46 47 47 47 47 47 46 46 46 45 46 46 46 45 44 44 43 44 43 42 41 42 41 42 42 42 41 42 42 42 42 42 41 43 41 42 42 43 43 46 46 45 45 45 45 45 45
44 44 45 45 46 46 46 46 46 46 46 46 45 45 45 45 46 47 47 47 46 45 44 44 43 43 43 43 42 42 42 42 40 40 39 40 41 42 42 42 42 42 41 40 40 40 39 40 38 38 39 40 41 43 43 44 44 43 43 43 43 44
44 45 46 46 46 45 46 45 45 45 44 44 44 43 43 44 44 45 45 44 44 43 43 43 42 42 42 41 41 40 39 38 39 39 40 40 41 41 41 41 41 39 39 38 38 37 37 38 37 37 37 39 38 40 42 42 42 42 42 42 42 42
45 46 45 45 45 44 44 44 44 43 42 42 42 42 42 42 42 43 43 42 42 42 42 41 40 40 40 40 39 39 39 39 39 40 39 39 39 39 39 39 37 37 38 40 38 39 38 38 38 38 37 37 36 37 39 41 41 42 41 41 42 40
45 45 44 45 44 44 43 43 42 41 41 42 41 40 40 41 41 42 42 41 40 40 40 40 40 40 39 39 39 39 39 39 38 38 38 36 38 36 37 36 36 36 37 36 37 37 37 37 36 36 36 36 35 36 37 37 38 39 40 41 41 41
45 45 44 43 42 41 41 41 42 40 40 40 40 39 40 40 40 41 41 40 40 40 39 39 39 39 38 38 38 38 38 37 36 35 36 35 35 35 35 35 35 36 35 37 36 37 38 38 37 37 37 36 35 35 36 36 36 37 38 39 39 39
44 43 43 42 42 41 41 40 40 40 39 39 39 39 39 41 41 41 40 40 39 39 38 38 37 37 38 36 36 36 36 35 34 34 34 34 34 35 34 35 36 35 35 36 37 38 38 38 38 37 36 35 35 36 35 35 36 36 36 36 36 37
44 43 42 42 41 41 41 41 41 41 40 39 38 37 38 38 40 40 39 38 38 38 37 37 37 36 36 35 35 34 34 34 33 33 33 33 34 37 34 35 35 36 37 37 37 37 38 39 40 40 40 39 38 36 36 36 35 35 35 35 35 35
44 42 42 41 42 41 41 41 40 39 39 38 37 37 37 38 38 38 38 37 37 36 36 36 35 35 34 34 34 34 33 33 33 33 33 34 34 34 35 35 35 35 36 36 37 36 38 39 40 40 41 41 39 36 36 35 34 34 34 34 34 35
43 42 42 42 42 41 41 40 39 39 38 37 36 37 36 36 37 37 36 36 35 35 35 34 35 34 34 34 33 33 33 34 34 33 34 34 34 34 35 35 35 35 35 35 35 36 37 38 39 40 42 43 43 39 35 34 34 33 33 33 34 34
43 42 41 41 40 40 40 39 38 37 37 36 35 35 35 34 35 35 35 35 34 34 34 34 34 33 33 33 33 33 33 33 33 33 33 33 33 34 33 33 33 33 33 34 33 34 35 36 38 41 42 42 42 41 37 35 34 34 33 33 33 34
43 42 41 40 40 40 39 39 38 37 36 36 34 34 35 34 34 34 34 33 33 32 33 32 33 32 32 32 32 32 32 32 32 32 32 32 32 31 32 32 32 33 33 33 32 33 34 33 38 40 41 41 42 42 40 35 34 33 33 33 33 34
42 41 40 39 38 37 37 37 36 36 35 35 34 35 35 35 34 34 33 33 32 32 32 32 32 32 31 31 31 31 31 31 31 30 31 31 30 30 30 30 31 31 31 32 32 32 32 32 36 40 41 41 41 41 40 35 34 34 33 33 34 34
40 38 37 37 37 36 36 36 35 35 34 34 34 34 35 35 34 33 33 32 31 31 31 31 31 31 30 30 30 29 29 29 28 29 29 29 29 30 30 31 31 31 31 31 31 31 32 33 38 40 40 41 41 41 40 35 34 33 33 33 33 34
40 38 37 37 37 36 35 36 35 34 35 34 34 34 34 34 33 32 32 31 30 30 30 30 30 29 29 29 28 28 27 27 27 28 28 28 28 28 28 29 28 30 30 30 30 31 32 33 38 39 39 40 40 41 36 33 32 32 33 33 34 34
39 37 37 36 35 35 35 35 35 35 34 34 34 34 33 32 32 31 30 30 30 30 29 29 28 27 27 26 26 25 26 26 27 27 27 27 28 28 28 28 29 30 30 31 31 30 31 32 35 38 39 39 41 39 33 32 32 32 32 33 35 35
36 36 36 35 34 34 34 34 35 34 34 33 33 32 32 31 30 30 29 29 29 29 28 28 27 24 24 23 23 24 24 25 25 25 28 27 27 27 28 28 29 29 29 30 30 30 30 31 34 37 38 40 40 39 35 33 32 32 33 34 35 36
36 35 34 34 33 33 33 33 33 33 33 32 31 30 29 28 28 28 28 28 28 28 27 26 25 23 23 22 22 22 22 23 24 26 26 26 25 26 27 29 29 29 28 27 29 31 31 31 33 37 38 40 40 39 34 33 32 32 33 34 34 36
35 33 32 31 31 31 32 32 33 32 31 30 29 28 27 27 27 28 28 28 29 29 27 25 23 21 21 20 20 21 22 23 24 24 24 24 25 25 26 26 27 26 28 29 28 30 31 31 32 34 38 39 40 40 37 35 33 32 33 33 34 33
34 32 30 30 29 30 31 32 32 30 29 28 27 25 26 26 27 28 29 30 29 27 24 22 21 20 20 19 20 21 22 22 22 22 22 23 24 24 24 25 26 27 28 30 29 30 30 31 31 33 37 38 39 40 38 34 33 33 33 33 33 33
29 28 27 27 27 28 29 31 30 29 28 26 24 25 27 27 28 28 28 27 25 23 21 20 20 20 20 20 20 18 19 19 20 21 21 21 22 23 24 24 26 27 28 29 30 30 30 31 32 32 35 37 38 38 39 35 34 35 34 33 33 33
28 27 26 25 25 25 26 28 28 26 25 24 25 27 27 27 27 26 25 23 21 20 19 19 18 19 19 18 19 17 18 19 19 20 21 22 22 23 23 23 24 25 26 27 28 29 29 30 31 33 32 35 36 36 37 37 36 37 35 33 31 32
27 25 24 24 23 23 23 26 26 25 23 23 26 26 25 23 21 20 20 19 18 17 18 19 18 18 18 18 18 18 19 19 19 17 19 21 21 21 22 23 24 24 24 24 25 27 28 29 30 31 32 32 34 35 36 36 36 36 33 32 31 32
25 23 22 22 21 21 22 24 24 23 22 23 24 22 20 19 18 18 17 16 16 16 16 16 16 18 17 18 18 18 19 18 18 19 19 20 20 20 20 21 22 22 22 23 23 25 26 27 27 28 29 31 32 33 34 34 34 34 33 30 30 31
23 21 20 19 20 20 20 20 21 19 21 21 20 19 17 16 15 16 15 15 16 16 14 16 16 17 17 16 16 17 15 17 18 17 17 17 17 18 18 19 20 20 20 21 22 23 24 25 25 25 27 28 29 30 31 32 32 31 32 31 31 32
22 20 19 17 18 19 19 20 20 20 19 18 18 17 15 15 16 16 15 14 16 14 15 16 16 16 15 13 13 14 15 16 15 14 16 16 16 16 16 17 18 19 19 20 20 21 22 22 23 24 25 26 26 26 28 29 29 31 31 30 31 31
23 20 18 17 18 19 19 18 17 17 16 16 15 15 14 14 14 13 12 13 13 15 15 15 19 16 13 14 14 15 15 14 14 14 14 14 15 15 16 17 17 18 18 18 19 20 20 21 22 23 23 24 26 27 28 29 29 28 29 29 29 30
21 19 18 17 17 18 18 16 15 14 13 15 14 13 11 12 13 12 11 12 14 14 16 13 11 11 12 12 13 12 13 14 14 14 13 14 15 13 16 18 18 19 19 19 19 19 18 20 20 22 27 28 29 28 27 26 26 27 27 28 31 29
17 16 15 15 15 16 15 14 13 13 12 12 11 10 9 10 11 10 10 13 12 11 10 9 9 9 11 10 11 12 11 20 22 21 18 14 23 26 27 26 21 21 22 21 21 21 20 20 23 28 29 29 29 29 29 29 29 30 29 30 31 30
15 14 13 13 15 15 14 11 10 9 9 10 11 10 10 11 10 10 11 11 8 10 9 9 8 9 8 10 10 11 11 11 12 20 23 24 23 24 24 25 25 26 26 24 21 23 27 27 27 27 27 27 27 28 28 28 29 29 30 31 28 26
13 12 12 13 14 13 11 9 8 7 7 7 8 10 9 8 9 7 7 7 7 10 10 8 8 8 9 9 9 9 9 8 8 10 18 21 20 21 22 23 24 25 25 25 24 22 21 23 25 26 26 26 26 26 27 27 28 29 29 30 30 25
12 12 11 12 12 10 9 7 6 6 6 7 8 7 5 4 5 3 2 4 7 7 9 9 7 8 7 6 6 6 6 6 6 6 7 11 17 19 20 21 22 22 22 23 23 23 23 22 23 24 25 25 25 25 25 26 28 28 28 28 24 22
11 11 10 10 9 7 6 5 5 5 5 5 4 3 1 1 1 1 2 4 6 5 5 5 5 4 4 5 5 4 5 4 6 5 5 6 8 10 14 18 19 20 20 21 22 22 22 22 23 23 23 24 24 25 25 26 24 26 27 25 20 21
10 9 9 8 7 6 4 3 4 4 4 1 0 -0 -1 -0 2 -0 5 9 9 4 4 4 4 4 3 4 2 2 3 4 5 6 6 6 6 6 7 8 11 15 19 17 18 20 22 22 22 22 22 23 23 24 25 25 19 17 18 20 21 21
8 8 8 6 5 4 3 3 4 3 1 -1 -1 -2 -2 -1 0 1 2 4 5 4 3 2 1 3 2 1 1 2 4 5 5 5 6 6 7 7 6 7 9 10 14 16 18 20 20 21 21 21 22 22 23 23 23 16 14 15 16 17 18 19

ECMWFFLT1_sfc_temp_102.txt.gz
Temp
40 39 41 43 42 41 43 46 48 49 49 50 51 50 49 49 49 48 48 49 49 48 46 45 44 44 44 43 43 44 43 43 42 42 41 41 40 41 40 40 38 37 36 37 37 38 38 38 38 38 38 38 38 37 39 41 41 40 41 42 42 42
39 40 41 41 41 42 45 46 46 47 47 47 46 46 47 47 47 47 46 45 45 43 43 42 43 43 43 42 43 42 42 41 41 40 40 39 39 38 38 36 36 35 36 34 35 34 34 34 33 34 34 34 35 33 34 35 36 37 38 38 38 39
38 38 38 39 38 38 39 42 43 44 45 45 44 45 45 45 44 43 42 42 42 42 42 41 42 41 41 41 41 41 40 39 39 39 38 36 36 35 35 35 34 34 34 34 33 33 34 34 33 32 32 33 33 32 33 33 34 35 35 35 34 35
38 37 37 37 39 39 40 40 41 41 41 41 42 42 42 42 41 42 41 41 41 41 40 40 40 40 40 39 39 38 37 36 36 35 35 35 32 34 34 35 33 33 34 34 34 33 33 34 35 31 31 32 32 32 33 32 32 32 33 32 33 32
38 38 38 38 38 38 38 38 40 40 40 40 40 41 40 41 41 41 41 41 40 39 38 38 37 37 37 37 36 36 35 34 34 33 35 34 33 32 32 33 33 33 33 33 32 33 33 33 32 30 31 32 32 32 31 30 32 32 33 33 33 33
36 37 37 38 37 38 39 38 38 38 39 39 40 40 39 40 40 40 40 39 37 37 37 36 35 36 35 35 35 34 33 33 33 33 34 32 33 33 32 33 33 33 33 33 33 33 33 33 32 32 30 31 32 32 32 31 31 31 31 31 32 32
36 38 38 38 37 36 37 38 38 38 38 38 39 39 38 38 38 38 37 37 36 36 35 34 34 35 34 34 33 33 33 33 33 33 32 33 33 32 33 33 32 33 33 33 33 33 33 32 32 32 32 31 29 31 31 31 31 31 31 31 31 32
38 37 37 38 37 38 38 37 37 37 37 37 37 38 37 36 36 37 37 36 36 35 34 34 34 34 34 33 33 33 33 33 33 32 32 32 33 32 32 32 32 32 33 32 32 31 32 31 31 31 32 32 31 30 30 30 30 31 31 32 32 32
39 40 39 39 37 37 37 37 37 36 37 36 36 36 36 36 36 36 36 35 35 35 34 34 33 33 33 33 33 32 33 32 32 32 32 31 32 32 32 32 32 31 31 31 31 32 32 32 32 31 30 31 31 31 32 31 31 32 31 32 32 32
40 39 39 37 37 36 36 35 36 37 37 37 36 36 36 36 36 35 35 35 35 34 33 32 32 33 32 32 32 32 32 31 31 31 30 31 32 32 31 31 31 30 30 30 30 31 30 30 31 30 31 31 30 31 31 31 31 31 31 31 32 32
40 39 38 37 36 36 36 36 35 35 35 35 36 36 35 35 36 35 35 35 34 33 33 32 32 32 32 32 32 32 31 31 30 30 31 31 31 32 30 30 31 31 31 30 30 31 31 32 32 31 32 33 32 30 31 32 31 31 31 31 31 31
40 39 38 37 37 36 36 36 35 36 36 35 35 35 34 35 35 36 35 35 33 33 32 32 32 31 31 31 31 30 30 30 30 30 30 30 30 30 30 29 29 29 29 30 30 30 32 32 32 34 38 39 35 32 31 31 30 31 30 30 30 30
39 38 37 37 37 37 37 37 36 36 36 36 35 35 34 35 35 35 35 34 33 32 32 32 31 31 31 30 30 29 30 29 29 29 29 29 29 29 28 29 29 29 29 29 29 29 31 31 32 37 39 40 40 34 31 30 30 30 30 29 29 29
39 39 38 38 38 38 37 37 36 36 36 35 35 34 34 35 35 35 34 33 32 32 31 31 30 30 29 29 29 28 28 28 28 28 28 28 28 27 28 29 28 28 28 29 28 28 30 30 35 38 38 39 39 39 33 30 30 29 29 29 28 28
41 41 40 39 39 38 38 38 37 36 36 35 35 34 34 34 34 34 33 32 31 31 30 30 30 29 28 28 27 27 27 27 27 26 27 26 26 27 28 27 28 28 28 28 28 28 29 28 34 37 38 38 39 39 36 31 29 29 28 28 28 27
43 42 42 41 40 39 38 37 37 37 35 35 34 34 34 33 33 33 32 31 31 30 29 29 29 28 27 27 27 27 26 26 25 24 24 24 26 26 27 26 26 27 27 27 27 27 28 28 33 37 37 37 38 38 36 28 28 28 27 27 27 28
43 41 39 39 38 37 36 36 35 35 34 34 34 33 33 33 33 32 31 30 29 29 29 28 28 27 27 26 26 25 25 25 24 25 24 25 25 25 25 24 24 26 25 26 27 27 27 29 34 36 36 36 37 37 34 28 28 27 26 27 27 27
42 41 41 39 38 37 37 36 35 35 34 34 34 33 33 32 32 31 30 30 29 29 28 28 27 27 26 26 25 25 24 24 24 24 24 24 24 24 24 24 24 24 24 24 23 24 26 28 33 34 35 36 36 35 28 27 27 26 26 26 26 26
44 42 40 38 38 36 36 35 35 35 33 33 32 32 32 32 31 30 30 29 28 28 28 27 27 26 25 24 24 24 23 23 23 23 22 23 23 23 24 26 24 23 23 23 23 25 27 27 30 33 34 34 35 32 26 26 25 25 25 25 26 26
38 37 38 36 35 36 35 35 35 34 33 32 31 31 31 31 31 30 29 28 28 27 27 26 26 25 24 23 23 23 23 22 21 21 21 22 22 23 25 26 25 25 22 22 24 26 25 23 26 32 33 33 33 32 26 24 24 23 24 25 26 26
38 36 36 35 34 34 35 34 34 34 33 32 31 31 31 30 29 29 28 27 26 26 25 25 25 24 23 22 21 21 21 19 19 20 20 21 22 24 24 24 23 22 22 23 24 25 22 19 24 29 31 32 32 30 24 23 22 22 23 24 25 26
35 34 35 35 36 35 34 34 34 33 33 32 31 31 30 29 29 28 27 26 25 25 24 24 23 22 21 21 20 19 20 19 19 20 20 22 22 22 22 20 21 20 21 20 17 18 19 20 20 24 30 31 31 32 26 22 22 23 24 25 25 24
37 37 37 37 36 35 34 35 34 33 32 31 31 30 30 28 27 26 26 25 24 24 23 22 21 21 20 20 20 21 20 20 21 21 22 21 21 19 19 19 19 17 16 15 15 16 17 18 19 21 29 30 30 31 29 24 25 25 25 24 24 24
35 35 35 35 34 35 34 34 33 32 31 31 30 29 27 26 26 25 24 23 22 22 21 20 20 20 20 19 19 19 19 20 20 20 20 18 18 18 17 16 15 15 15 16 17 17 15 18 23 18 25 29 29 29 29 26 25 27 25 23 23 24
34 34 33 33 33 34 34 33 32 30 29 29 27 25 25 25 24 23 22 22 21 21 20 19 19 19 19 18 18 19 18 19 19 18 18 18 16 14 13 14 14 13 14 14 15 16 16 16 17 25 22 26 28 28 28 28 27 28 26 24 22 22
32 31 30 31 31 32 31 32 29 28 27 25 24 23 23 23 22 22 21 20 20 19 19 18 17 17 17 17 17 18 19 19 17 17 17 17 14 12 12 12 12 12 12 11 13 13 16 16 17 21 24 24 26 27 28 28 28 28 25 25 23 23
30 28 27 27 28 28 28 29 28 26 25 23 23 22 22 21 21 20 20 19 19 18 17 17 17 16 15 15 18 19 19 18 17 16 15 13 11 11 10 11 11 11 11 11 12 13 14 15 14 15 21 24 25 26 27 27 27 27 27 24 23 25
26 26 25 24 24 26 26 26 28 27 24 22 22 21 21 20 20 19 19 18 18 18 18 18 18 18 17 17 17 17 17 17 16 15 11 10 8 7 7 10 10 9 9 10 10 12 13 13 13 13 17 22 24 24 25 26 26 26 26 26 25 27
25 25 24 23 21 23 23 23 23 23 22 21 20 20 20 20 20 19 19 18 18 18 19 18 17 17 17 16 15 15 14 14 11 12 11 7 5 6 8 9 10 9 10 9 9 10 11 11 12 15 18 21 22 23 23 24 23 25 25 24 24 25
26 24 24 23 21 21 21 21 20 20 20 19 19 19 20 20 20 19 18 17 17 17 18 18 17 16 15 14 14 14 12 12 10 7 7 6 6 5 7 7 7 8 9 7 8 8 10 11 13 16 19 21 22 22 23 23 23 23 23 22 23 24
25 24 24 22 20 19 19 18 18 18 18 19 18 19 19 19 19 18 17 17 17 16 16 16 15 14 13 11 11 10 10 8 6 6 5 6 4 4 7 5 7 8 6 5 7 9 12 14 14 17 24 23 24 23 22 21 22 23 22 24 26 22
23 23 22 20 19 18 18 16 16 17 17 17 17 18 18 18 17 16 16 16 16 16 14 13 12 11 10 9 9 8 9 16 19 13 5 8 20 24 25 22 10 10 11 10 9 11 14 14 18 23 24 24 24 25 25 25 25 25 23 24 24 20
20 20 20 19 17 17 16 15 14 14 14 15 16 17 18 17 16 14 13 14 14 14 13 11 10 10 8 8 7 7 8 6 11 22 23 21 21 23 25 23 23 23 22 19 11 14 22 22 23 23 23 24 24 24 24 24 24 24 23 23 18 12
19 20 19 18 17 15 14 13 12 12 13 13 14 15 16 16 16 14 14 13 13 13 12 11 9 8 7 6 5 6 7 8 7 6 17 20 19 22 23 21 21 21 21 21 21 17 14 20 22 22 23 23 23 23 23 23 22 22 22 21 19 10
20 20 19 18 16 15 13 12 11 11 11 11 11 13 13 14 14 14 13 13 12 11 10 9 8 7 6 4 4 5 7 7 8 7 3 9 18 20 19 19 19 19 19 20 21 21 20 20 21 22 22 22 21 22 21 20 19 20 20 18 10 7
19 18 17 16 15 14 13 12 10 10 9 9 10 11 12 11 11 12 12 11 11 10 9 8 7 6 6 6 6 6 5 5 4 1 2 -1 -2 2 9 15 17 16 17 18 19 19 19 20 20 21 21 20 20 20 19 17 13 17 18 15 7 6
17 16 16 15 13 12 11 10 9 8 7 7 7 8 9 8 8 7 9 10 10 9 8 8 8 6 7 7 7 6 5 3 2 1 -0 -2 -2 -2 -3 -5 0 9 16 13 14 17 18 18 19 20 19 19 19 19 17 13 6 5 6 6 6 6
14 14 13 13 12 10 9 9 7 6 5 5 5 6 6 6 7 7 8 9 9 7 7 7 6 7 7 7 5 5 4 3 3 3 -1 0 -0 -2 -4 -3 -4 -3 9 14 14 15 16 17 18 18 18 17 17 17 14 3 2 2 3 4 4 4

ECMWFFLT1_sfc_temp_105.txt.gz
Temp
38 39 41 41 43 45 48 48 49 50 50 51 52 51 51 51 51 50 49 49 50 49 48 47 47 47 46 45 46 46 46 44 43 42 40 39 39 39 39 38 37 36 35 36 35 36 36 36 36 36 36 36 37 38 39 39 37 37 37 39 39 38
38 38 41 43 44 45 47 48 49 49 49 50 49 49 49 49 49 49 49 48 47 46 45 44 44 44 45 45 45 44 43 41 41 40 39 38 38 38 37 36 35 35 35 33 34 34 33 34 33 33 33 33 33 32 33 33 33 34 34 33 32 33
37 37 37 38 38 41 45 47 48 47 47 48 48 49 48 48 47 48 46 47 46 46 45 44 44 43 44 43 42 41 40 39 39 39 37 36 35 34 35 35 35 34 34 34 33 34 33 33 33 31 31 32 33 32 32 31 31 32 31 30 31 30
37 36 34 35 37 41 44 44 45 46 46 47 47 47 47 46 45 46 45 45 45 44 43 42 41 41 40 40 39 38 37 36 36 35 34 34 32 34 35 34 33 33 34 34 34 33 32 32 33 30 32 32 33 32 31 31 30 31 30 29 31 31
36 36 36 36 36 40 41 42 44 45 45 44 44 46 44 45 44 44 44 44 43 41 39 38 37 37 37 36 35 35 34 34 33 33 35 34 33 32 33 33 33 33 33 33 32 32 32 32 31 31 31 30 30 31 30 30 30 30 30 31 31 31
34 34 35 35 35 37 40 42 42 42 43 43 43 43 42 42 42 42 42 40 38 37 36 36 35 36 36 35 35 34 33 33 33 33 33 33 33 33 32 32 33 33 33 32 32 33 33 33 32 32 31 31 30 29 29 28 30 31 31 31 31 31
35 36 35 35 34 34 35 38 40 40 40 40 41 41 41 40 40 40 38 37 36 35 36 35 35 35 35 34 34 33 33 33 33 33 33 33 33 32 32 31 31 32 32 33 33 33 33 32 32 33 32 31 30 29 28 28 30 30 31 31 31 32
35 34 34 35 35 36 36 35 36 35 36 37 37 38 37 37 37 37 37 36 36 35 35 34 34 34 34 34 33 33 33 33 33 33 32 33 33 31 31 31 30 32 32 32 32 32 32 31 31 31 31 31 31 30 30 30 30 30 30 31 31 31
36 37 36 36 35 35 35 35 35 34 35 35 35 36 36 36 36 36 36 35 35 35 34 34 34 34 34 33 33 33 33 33 32 33 32 31 32 32 31 31 32 31 32 31 31 32 32 32 32 31 31 31 31 30 31 30 31 31 30 30 31 30
38 37 37 36 36 35 35 34 35 36 36 36 35 34 35 35 35 35 35 35 34 34 33 33 33 33 33 33 33 33 32 32 31 31 31 31 31 31 31 31 31 30 31 31 31 31 31 31 31 31 30 30 30 30 31 30 30 30 30 30 30 30
39 39 38 37 36 36 35 35 35 35 35 35 35 35 35 34 35 34 34 34 34 34 33 33 33 32 32 33 33 32 32 31 30 30 30 30 30 31 30 30 31 31 31 30 30 31 31 31 32 31 32 32 31 30 31 31 30 29 29 29 29 29
40 40 39 37 36 36 36 36 35 36 36 35 34 34 34 34 35 35 35 35 34 33 33 33 33 32 32 32 32 31 31 30 30 30 30 30 30 29 30 30 30 30 30 30 30 30 31 31 31 34 38 38 33 31 30 30 29 28 28 28 28 28
40 39 38 38 37 37 37 37 36 36 35 35 35 35 34 35 35 35 35 35 33 33 33 33 32 32 32 31 31 30 30 30 30 30 30 29 29 29 29 30 29 28 28 29 29 29 29 30 32 37 38 38 39 33 30 29 29 28 27 27 26 26
40 39 39 38 38 37 37 37 36 36 36 36 35 35 34 35 36 35 35 34 33 33 32 32 32 32 31 30 30 30 30 30 30 30 30 29 29 28 29 29 28 28 28 28 28 28 28 28 35 37 37 38 38 36 30 28 27 27 26 26 26 26
42 42 41 40 39 38 39 39 37 37 37 36 35 34 34 35 35 34 33 32 32 32 31 31 31 31 30 30 29 29 30 29 29 29 29 28 27 28 28 27 27 27 27 27 27 27 27 27 35 36 37 37 37 36 31 27 26 25 25 25 25 25
43 43 42 41 40 40 39 38 38 37 36 35 34 34 34 34 33 33 32 32 31 31 31 31 31 30 30 29 29 29 29 29 28 27 27 27 27 27 27 26 26 26 26 26 26 26 26 26 33 35 36 36 36 35 31 25 25 25 24 24 24 25
43 41 40 40 40 38 37 36 36 35 34 34 34 34 34 33 33 32 32 32 31 31 31 31 31 30 29 29 29 28 28 28 27 26 26 26 26 26 26 26 25 26 25 25 26 26 26 28 33 34 35 35 35 34 30 24 26 24 23 24 24 24
43 42 42 41 38 37 37 37 35 35 34 33 34 33 33 33 33 32 32 32 31 31 31 31 30 29 28 28 28 27 27 26 26 26 25 24 24 24 24 24 24 24 24 25 25 25 25 27 32 33 33 34 34 32 24 24 24 23 23 23 23 23
45 43 40 38 38 37 36 35 35 34 33 33 32 32 32 33 33 32 32 31 31 30 30 30 29 28 28 27 27 26 25 25 24 24 24 24 24 24 24 24 24 23 24 23 24 24 25 26 29 31 32 33 34 29 22 21 20 22 24 25 25 24
39 37 39 37 36 36 36 34 35 34 33 33 33 33 32 33 33 32 32 31 30 30 30 30 29 28 27 26 26 25 25 24 23 23 22 25 24 24 23 23 23 23 23 22 22 25 24 24 26 30 31 32 32 29 23 23 22 23 24 25 26 26
40 37 37 36 36 35 35 34 34 34 33 33 32 32 32 32 32 32 31 31 30 29 28 28 28 27 26 25 24 24 24 23 23 22 22 22 22 22 22 22 22 21 21 23 24 25 24 23 24 27 30 31 31 29 25 24 23 23 24 24 23 25
36 36 36 36 37 36 35 35 35 34 34 33 32 32 32 33 33 32 30 29 28 27 26 26 26 25 25 24 23 23 23 22 21 21 21 20 21 21 21 21 21 21 22 23 23 23 22 22 21 24 29 29 29 30 26 24 23 22 23 23 23 22
39 39 38 38 36 35 35 35 35 34 34 33 32 32 33 33 31 29 28 27 26 25 24 24 24 24 23 23 23 23 21 21 21 20 20 20 19 19 19 19 20 21 22 22 21 21 21 21 20 21 28 28 28 29 28 24 24 24 23 22 22 22
36 35 35 35 35 35 35 35 35 35 33 32 32 34 32 30 28 27 26 25 24 24 23 22 22 22 22 21 21 21 19 18 19 20 19 19 19 19 19 19 20 21 21 21 22 21 20 21 22 19 24 27 27 28 28 25 24 26 24 22 22 22
35 34 34 33 34 35 35 35 35 34 33 32 32 30 28 28 26 26 24 23 22 22 21 20 20 20 20 20 20 20 19 18 18 18 19 19 18 18 19 19 20 19 19 19 20 20 19 20 19 23 21 25 26 27 27 28 26 28 25 23 21 21
33 32 31 32 33 34 34 35 34 33 31 32 28 27 26 25 25 24 23 22 21 20 20 19 19 19 19 19 20 19 19 18 17 17 18 19 18 18 18 18 18 18 17 17 17 18 18 17 15 19 23 23 25 26 27 27 27 27 25 24 22 23
31 30 29 29 31 32 33 34 34 31 31 28 25 25 24 24 23 22 22 21 20 19 18 18 18 18 17 18 19 19 18 17 18 17 17 17 18 18 17 17 17 16 15 16 16 15 12 13 13 16 21 23 24 25 26 26 27 26 27 23 23 24
28 29 28 27 28 29 30 30 31 30 29 24 25 25 24 23 22 21 21 20 19 18 18 17 17 17 17 18 18 19 20 19 19 18 17 17 18 17 17 16 15 14 14 13 12 11 11 11 14 16 20 23 23 24 24 25 25 25 26 25 24 25
28 27 27 27 25 27 27 27 27 28 24 24 24 24 23 22 22 21 20 19 18 17 18 18 18 17 17 17 17 18 18 19 19 18 17 17 16 15 15 15 14 13 12 10 8 8 8 9 13 16 19 22 22 22 23 23 23 24 24 22 23 23
28 27 27 27 25 25 25 25 24 23 23 23 23 22 22 21 21 20 19 18 18 18 18 18 18 18 17 17 17 17 16 17 18 18 17 16 16 15 14 14 13 12 10 6 5 5 7 10 13 16 19 20 21 22 22 22 22 21 20 20 21 19
27 26 26 26 23 23 24 23 22 22 23 22 22 22 22 21 20 20 19 18 18 18 18 18 18 18 17 16 16 16 16 15 16 17 16 16 14 17 16 14 13 11 7 6 7 9 11 14 15 17 23 22 24 23 21 21 21 21 20 22 23 16
23 24 24 22 21 21 21 20 20 20 21 21 21 22 21 20 20 19 18 18 18 18 17 16 16 16 15 14 13 13 14 18 19 17 17 16 19 22 21 19 11 11 8 7 8 11 12 13 16 23 23 23 23 23 24 24 23 23 21 22 20 15
20 21 21 20 19 19 19 18 17 18 18 19 20 21 21 20 20 19 18 17 17 17 16 15 14 14 14 14 14 16 16 17 20 23 23 23 23 24 25 24 23 23 20 15 9 15 22 21 22 23 23 22 22 23 23 22 22 22 21 20 12 5
19 21 21 19 18 17 16 15 15 16 16 18 19 20 20 20 20 19 18 18 17 17 16 15 13 13 12 13 14 15 16 16 15 16 22 24 25 26 24 24 23 23 23 22 19 15 14 20 22 22 22 21 21 21 21 20 20 20 20 17 15 2
20 19 17 17 16 15 14 14 13 13 14 15 16 18 18 19 19 19 18 17 16 15 14 14 13 12 12 11 11 13 15 15 15 14 14 17 23 24 23 22 22 22 21 22 22 22 19 19 21 21 21 20 20 20 19 18 18 19 18 14 4 -2
18 17 17 16 15 15 14 13 11 12 12 12 13 14 16 16 16 17 17 16 15 15 13 12 12 12 12 12 13 14 15 15 16 16 14 11 10 11 16 19 19 19 20 21 20 19 19 20 20 20 20 19 19 18 17 15 12 16 16 11 -2 -0
17 16 16 16 14 14 13 12 10 10 10 11 12 13 14 14 15 14 14 14 14 15 13 13 13 11 11 11 12 12 12 13 12 13 12 12 10 9 7 4 4 12 18 12 15 18 19 19 19 19 18 18 18 16 15 12 -0 -1 -1 1 -1 1
15 14 14 14 14 13 12 12 10 10 8 9 10 12 13 13 13 13 13 13 13 14 14 13 12 11 11 10 10 11 11 10 9 9 10 10 9 8 6 2 -0 -2 7 15 16 17 17 18 18 18 17 16 16 14 12 -4 -4 -3 -3 -1 -3 -2